Provisional Data: Susquehanna River near Binghamton, NY


Please select a monitoring station.
Please select start date.
Please select start date.

Toggle Unit: C/F Toggle Unit: C/F
Sample Time Temperature (C) Temperature (F) Specific Conductivity (mS/cm) pH   Turbidity (NTU+) DO (mg/L)
12/4/2020 12:00:00 AM 7.6472 1.9352
12/4/2020 12:00:00 AM 4.79 40.622 0.188 6.82 3.9 12.57
12/4/2020 12:15:00 AM 4.79 40.622 0.189 6.83 4.22 12.54
12/4/2020 12:15:00 AM 7.641 1.9539
12/4/2020 12:30:00 AM 7.6328 1.9533
12/4/2020 12:30:00 AM 4.78 40.604 0.188 6.87 3.06 12.54
12/4/2020 12:45:00 AM 4.78 40.604 0.188 6.86 4.21 12.51
12/4/2020 12:45:00 AM 7.6282 1.9843
12/4/2020 1:00:00 AM 7.6213 1.9537
12/4/2020 1:00:00 AM 4.77 40.586 0.189 6.86 4.09 12.5
12/4/2020 1:15:00 AM 4.76 40.568 0.189 6.86 3.57 12.5
12/4/2020 1:15:00 AM 7.6173 1.9312
12/4/2020 1:30:00 AM 7.6143 1.9401
12/4/2020 1:30:00 AM 4.76 40.568 0.188 6.87 3.6 12.48
12/4/2020 1:45:00 AM 4.75 40.55 0.189 6.88 3.97 12.45
12/4/2020 1:45:00 AM 7.6127 1.9591
12/4/2020 2:00:00 AM 7.6091 1.9656
12/4/2020 2:00:00 AM 4.75 40.55 0.189 6.87 3.27 12.43
12/4/2020 2:15:00 AM 4.74 40.532 0.189 6.88 4.39 12.44
12/4/2020 2:15:00 AM 7.6051 1.9517
12/4/2020 2:30:00 AM 7.5999 1.9955
12/4/2020 2:30:00 AM 4.73 40.514 0.189 6.88 3.25 12.41
12/4/2020 2:45:00 AM 4.73 40.514 0.189 6.88 3.83 12.41
12/4/2020 2:45:00 AM 7.595 2.0995
12/4/2020 3:00:00 AM 7.5974 1.9476
12/4/2020 3:00:00 AM 4.73 40.514 0.19 6.89 3.31 12.39
12/4/2020 3:15:00 AM 4.73 40.514 0.189 6.89 3.68 12.37
12/4/2020 3:15:00 AM 7.5885 1.8947
12/4/2020 3:30:00 AM 7.5929 1.8555
12/4/2020 3:30:00 AM 4.73 40.514 0.19 6.9 3.65 12.36
12/4/2020 3:45:00 AM 4.73 40.514 0.189 6.9 3.39 12.36
12/4/2020 3:45:00 AM 7.5879 1.8682
12/4/2020 4:00:00 AM 7.5906 2.0376
12/4/2020 4:00:00 AM 4.73 40.514 0.19 6.91 2.85 12.34
12/4/2020 4:15:00 AM 4.73 40.514 0.19 6.91 2.71 12.33
12/4/2020 4:15:00 AM 7.5945 2.0407
12/4/2020 4:30:00 AM 7.5921 2.0482
12/4/2020 4:30:00 AM 4.73 40.514 0.19 6.93 2.82 12.31
12/4/2020 4:45:00 AM 4.73 40.514 0.19 6.92 3.05 12.31
12/4/2020 4:45:00 AM 7.5872 2.0587
12/4/2020 5:00:00 AM 7.5852 2.0501
12/4/2020 5:00:00 AM 4.74 40.532 0.19 6.92 3.93 12.28
12/4/2020 5:15:00 AM 4.74 40.532 0.19 6.92 2.87 12.28
12/4/2020 5:15:00 AM 7.5822 2.0443
12/4/2020 5:30:00 AM 7.5805 2.0306
12/4/2020 5:30:00 AM 4.75 40.55 0.19 6.93 3.18 12.24
12/4/2020 5:45:00 AM 4.75 40.55 0.19 6.94 3.55 12.26
12/4/2020 5:45:00 AM 7.5755 2.1
12/4/2020 6:00:00 AM 7.5146 2.0408
12/4/2020 6:00:00 AM 4.75 40.55 0.19 6.94 3.71 12.23
12/4/2020 6:15:00 AM 4.75 40.55 0.19 6.94 2.87 12.22
12/4/2020 6:15:00 AM 7.5573 2.0527
12/4/2020 6:30:00 AM 7.5652 1.9745
12/4/2020 6:30:00 AM 4.76 40.568 0.19 6.94 2.74 12.22
12/4/2020 6:45:00 AM 4.76 40.568 0.191 6.94 2.85 12.22
12/4/2020 6:45:00 AM 7.5699 1.9394
12/4/2020 7:00:00 AM 7.5732 2.0145
12/4/2020 7:00:00 AM 4.76 40.568 0.191 6.95 3.24 12.19
12/4/2020 7:15:00 AM 4.76 40.568 0.191 6.95 2.78 12.19
12/4/2020 7:15:00 AM 7.5769 2.0301
12/4/2020 7:30:00 AM 7.5853 1.9878
12/4/2020 7:30:00 AM 4.76 40.568 0.191 6.95 2.84 12.19
12/4/2020 7:45:00 AM 4.76 40.568 0.191 6.95 3.18 12.18
12/4/2020 7:45:00 AM 7.5999 1.9442
12/4/2020 8:00:00 AM 7.5993 1.9667
12/4/2020 8:00:00 AM 4.77 40.586 0.191 6.97 2.84 12.18
12/4/2020 8:15:00 AM 4.78 40.604 0.191 6.97 3.03 12.19
12/4/2020 8:15:00 AM 7.5954 2.0021
12/4/2020 8:30:00 AM 7.5867 2.025
12/4/2020 8:30:00 AM 4.78 40.604 0.191 6.97 3.06 12.2
12/4/2020 8:45:00 AM 4.78 40.604 0.191 6.96 3.13 12.2
12/4/2020 8:45:00 AM 7.5852 2.0995
12/4/2020 9:00:00 AM 7.5784 2.0256
12/4/2020 9:00:00 AM 4.79 40.622 0.191 6.96 3.25 12.2
12/4/2020 9:15:00 AM 4.8 40.64 0.192 6.96 2.71 12.22
12/4/2020 9:15:00 AM 7.5754 2.2286
12/4/2020 9:30:00 AM 7.5703 2.0768
12/4/2020 9:30:00 AM 4.82 40.676 0.192 6.95 3.48 12.24
12/4/2020 9:45:00 AM 4.84 40.712 0.192 6.95 2.91 12.28
12/4/2020 9:45:00 AM 7.5679 2.0177
12/4/2020 10:00:00 AM 7.5697 2.0524
12/4/2020 10:00:00 AM 4.85 40.73 0.192 6.96 3.16 12.27
12/4/2020 10:15:00 AM 4.87 40.766 0.192 6.97 2.66 12.29
12/4/2020 10:15:00 AM 7.5664 2.058
12/4/2020 10:30:00 AM 7.5709 2.0534
12/4/2020 10:30:00 AM 4.88 40.784 0.192 6.97 3.09 12.3
12/4/2020 10:45:00 AM 4.9 40.82 0.192 6.96 2.57 12.31
12/4/2020 10:45:00 AM 7.5739 2.0309
12/4/2020 11:00:00 AM 7.5759 2.0287
12/4/2020 11:00:00 AM 4.93 40.874 0.192 6.98 2.62 12.37
12/4/2020 11:15:00 AM 4.95 40.91 0.192 6.99 2.52 12.38
12/4/2020 11:15:00 AM 7.5724 2.0598
12/4/2020 11:30:00 AM 7.5733 2.0765
12/4/2020 11:30:00 AM 4.98 40.964 0.192 6.99 2.98 12.42
12/4/2020 11:45:00 AM 5.01 41.018 0.193 7 2.47 12.45
12/4/2020 11:45:00 AM 7.5698 2.0001
12/4/2020 12:00:00 PM 7.5772 2.1689
12/4/2020 12:00:00 PM 5.02 41.036 0.193 7 2.85 12.45
12/4/2020 12:15:00 PM 5.04 41.072 0.193 7.01 3.02 12.46
12/4/2020 12:15:00 PM 7.5818 2.127
12/4/2020 12:30:00 PM 7.5836 2.1503
12/4/2020 12:30:00 PM 5.05 41.09 0.193 7.02 2.44 12.49
12/4/2020 12:45:00 PM 5.08 41.144 0.193 7.02 2.92 12.5
12/4/2020 12:45:00 PM 7.5887 2.1553
12/4/2020 1:00:00 PM 7.5905 2.1545
12/4/2020 1:00:00 PM 5.09 41.162 0.193 7.03 3.31 12.52
12/4/2020 1:15:00 PM 5.11 41.198 0.193 7.03 2.63 12.52
12/4/2020 1:15:00 PM 7.5977 2.0476
12/4/2020 1:30:00 PM 7.6029 2.0494
12/4/2020 1:30:00 PM 5.12 41.216 0.193 7.04 2.46 12.51
12/4/2020 1:45:00 PM 5.13 41.234 0.193 7.04 6.72 12.53
12/4/2020 1:45:00 PM 7.5918 2.0332
12/4/2020 2:00:00 PM 7.5804 2.0234
12/4/2020 2:00:00 PM 5.14 41.252 0.193 7.05 2.61 12.52
12/4/2020 2:15:00 PM 5.16 41.288 0.193 7.05 2.64 12.52
12/4/2020 2:15:00 PM 7.5709 2.1955
12/4/2020 2:30:00 PM 7.5685 2.6164
12/4/2020 2:30:00 PM 5.17 41.306 0.193 7.05 6.27 12.53
12/4/2020 2:45:00 PM 5.18 41.324 0.193 7.05 2.49 12.5
12/4/2020 2:45:00 PM 7.5745 3.1236
12/4/2020 3:00:00 PM 7.5802 3.1681
12/4/2020 3:00:00 PM 5.19 41.342 0.193 7.06 2.49 12.51
12/4/2020 3:15:00 PM 5.22 41.396 0.194 7.07 2.43 12.48
12/4/2020 3:15:00 PM 7.5853 2.8321
12/4/2020 3:30:00 PM 7.5924 2.7518
12/4/2020 3:30:00 PM 5.22 41.396 0.193 7.07 2.53 12.5
12/4/2020 3:45:00 PM 5.23 41.414 0.194 7.07 2.29 12.49
12/4/2020 3:45:00 PM 7.602 2.5493
12/4/2020 4:00:00 PM 7.6131 2.3757
12/4/2020 4:00:00 PM 5.24 41.432 0.194 7.07 3.05 12.48
12/4/2020 4:15:00 PM 5.25 41.45 0.194 7.08 2.49 12.47
12/4/2020 4:15:00 PM 7.6219 2.271
12/4/2020 4:30:00 PM 7.627 2.2455
12/4/2020 4:30:00 PM 5.25 41.45 0.194 7.07 2.22 12.46
12/4/2020 4:45:00 PM 5.25 41.45 0.194 7.07 2.83 12.44
12/4/2020 4:45:00 PM 7.6319 2.2607
12/4/2020 5:00:00 PM 7.6418 2.2538
12/4/2020 5:00:00 PM 5.26 41.468 0.194 7.07 2.52 12.43
12/4/2020 5:15:00 PM 5.27 41.486 0.194 7.08 2.38 12.42
12/4/2020 5:15:00 PM 7.6494 2.2311
12/4/2020 5:30:00 PM 7.6509 2.2481
12/4/2020 5:30:00 PM 5.28 41.504 0.194 7.08 2.31 12.39
12/4/2020 5:45:00 PM 5.29 41.522 0.194 7.08 2.57 12.36
12/4/2020 5:45:00 PM 7.6524 2.4
12/4/2020 6:00:00 PM 7.649 2.2502
12/4/2020 6:00:00 PM 5.29 41.522 0.185 7.09 2.64 12.37
12/4/2020 6:15:00 PM 5.3 41.54 0.193 7.08 2.25 12.32
12/4/2020 6:15:00 PM 7.6445 2.1328
12/4/2020 6:30:00 PM 7.6371 2.15
12/4/2020 6:30:00 PM 5.32 41.576 0.194 7.09 2.95 12.33
12/4/2020 6:45:00 PM 5.31 41.558 0.194 7.09 2.78 12.3
12/4/2020 6:45:00 PM 7.6259 2.14
12/4/2020 7:00:00 PM 7.6214 2.1443
12/4/2020 7:00:00 PM 5.33 41.594 0.191 7.09 3.24 12.29
12/4/2020 7:15:00 PM 5.34 41.612 0.191 7.09 3.34 12.3
12/4/2020 7:15:00 PM 7.6171 2.0986
12/4/2020 7:30:00 PM 7.6133 2.1433
12/4/2020 7:30:00 PM 5.35 41.63 0.19 7.09 2.79 12.26
12/4/2020 7:45:00 PM 5.36 41.648 0.185 7.11 2.58 12.26
12/4/2020 7:45:00 PM 7.6103 2.1507
12/4/2020 8:00:00 PM 7.6073 2.1569
12/4/2020 8:00:00 PM 5.36 41.648 0.188 7.12 2.6 12.25
12/4/2020 8:15:00 PM 5.38 41.684 0.191 7.13 2.93 12.21
12/4/2020 8:15:00 PM 7.6062 2.1617
12/4/2020 8:30:00 PM 7.6012 2.1398
12/4/2020 8:30:00 PM 5.39 41.702 0.189 7.13 3.3 12.2
12/4/2020 8:45:00 PM 5.42 41.756 0.187 7.12 2.91 12.19
12/4/2020 8:45:00 PM 7.5964 2.1003
12/4/2020 9:00:00 PM 7.597 2.1525
12/4/2020 9:00:00 PM 5.42 41.756 0.191 7.11 4.34 12.16
12/4/2020 9:15:00 PM 5.45 41.81 0.193 7.12 3.35 12.14
12/4/2020 9:15:00 PM 7.5925 2.1337
12/4/2020 9:30:00 PM 7.59 2.0891
12/4/2020 9:30:00 PM 5.44 41.792 0.194 7.12 3.49 12.14
12/4/2020 9:45:00 PM 5.49 41.882 0.195 7.12 5.15 12.09
12/4/2020 9:45:00 PM 7.5732 2.2904
12/4/2020 10:00:00 PM 7.571 2.2509
12/4/2020 10:00:00 PM 5.51 41.918 0.194 7.12 3.22 12.07
12/4/2020 10:15:00 PM 5.53 41.954 0.187 7.12 3.51 12.03
12/4/2020 10:15:00 PM 7.5713 2.2426
12/4/2020 10:30:00 PM 7.5646 2.1891
12/4/2020 10:30:00 PM 5.56 42.008 0.188 7.14 3.94 12.03
12/4/2020 10:45:00 PM 5.58 42.044 0.195 7.13 4.26 11.99
12/4/2020 10:45:00 PM 7.5667 2.21
12/4/2020 11:00:00 PM 7.5615 2.2059
12/4/2020 11:00:00 PM 5.6 42.08 0.189 7.13 5.82 11.97
12/4/2020 11:15:00 PM 5.65 42.17 0.19 7.13 5.78 11.95
12/4/2020 11:15:00 PM 7.5424 2.1376
12/4/2020 11:30:00 PM 7.528 2.1852
12/4/2020 11:30:00 PM 5.66 42.188 0.18 7.13 5.83 11.91
12/4/2020 11:45:00 PM 5.67 42.206 0.187 7.12 7.38 11.92
12/4/2020 11:45:00 PM 7.525 2.1997
12/5/2020 12:00:00 AM 7.5121 2.1885
12/5/2020 12:00:00 AM 5.69 42.242 0.191 7.09 7.44 11.89
12/5/2020 12:15:00 AM 5.68 42.224 0.191 7.1 7.64 11.89
12/5/2020 12:15:00 AM 7.5011 2.1695
12/5/2020 12:30:00 AM 7.4962 2.1365
12/5/2020 12:30:00 AM 5.67 42.206 0.191 7.1 9.17 11.86
12/5/2020 12:45:00 AM 5.72 42.296 0.19 7.09 12.53 11.85
12/5/2020 12:45:00 AM 7.4885 2.1519
12/5/2020 1:00:00 AM 7.4838 2.1346
12/5/2020 1:00:00 AM 5.75 42.35 0.19 7.1 11.2 11.81
12/5/2020 1:15:00 AM 5.77 42.386 0.189 7.09 11.3 11.8
12/5/2020 1:15:00 AM 7.4781 2.1698
12/5/2020 1:30:00 AM 7.473 2.8711
12/5/2020 1:30:00 AM 5.74 42.332 0.189 7.1 9.76 11.79
12/5/2020 1:45:00 AM 5.77 42.386 0.189 7.09 9.85 11.77
12/5/2020 1:45:00 AM 7.4668 2.3123
12/5/2020 2:00:00 AM 7.464 2.2463
12/5/2020 2:00:00 AM 5.83 42.494 0.187 7.09 15.38 11.72
12/5/2020 2:15:00 AM 5.81 42.458 0.188 7.08 11.48 11.71
12/5/2020 2:15:00 AM 7.4602 2.224
12/5/2020 2:30:00 AM 7.4527 2.2419
12/5/2020 2:30:00 AM 5.8 42.44 0.188 7.09 11.99 11.72
12/5/2020 2:45:00 AM 5.8 42.44 0.189 7.09 11.91 11.71
12/5/2020 2:45:00 AM 7.4508 2.2
12/5/2020 3:00:00 AM 7.451 2.2405
12/5/2020 3:00:00 AM 5.81 42.458 0.189 7.09 11.69 11.71
12/5/2020 3:15:00 AM 5.81 42.458 0.189 7.07 15.78 11.69
12/5/2020 3:15:00 AM 7.4496 2.2393
12/5/2020 3:30:00 AM 7.4467 2.2338
12/5/2020 3:30:00 AM 5.84 42.512 0.189 7.08 14.13 11.68
12/5/2020 3:45:00 AM 5.86 42.548 0.189 7.07 12.94 11.65
12/5/2020 3:45:00 AM 7.4485 2.2365
12/5/2020 4:00:00 AM 7.4457 2.2196
12/5/2020 4:00:00 AM 5.81 42.458 0.19 7.08 13.07 11.67
12/5/2020 4:15:00 AM 5.8 42.44 0.191 7.09 13.16 11.64
12/5/2020 4:15:00 AM 7.4474 2.2318
12/5/2020 4:30:00 AM 7.4449 2.2436
12/5/2020 4:30:00 AM 5.85 42.53 0.19 7.09 12.77 11.62
12/5/2020 4:45:00 AM 5.83 42.494 0.191 7.09 12.31 11.65
12/5/2020 4:45:00 AM 7.4432 2.2568
12/5/2020 5:00:00 AM 7.4403 2.2499
12/5/2020 5:00:00 AM 5.86 42.548 0.191 7.09 12.57 11.63
12/5/2020 5:15:00 AM 5.85 42.53 0.191 7.1 11.91 11.6
12/5/2020 5:15:00 AM 7.4433 2.2309
12/5/2020 5:30:00 AM 7.4426 2.2377
12/5/2020 5:30:00 AM 5.84 42.512 0.192 7.09 11.59 11.61
12/5/2020 5:45:00 AM 5.86 42.548 0.192 7.09 11.02 11.59
12/5/2020 5:45:00 AM 7.4466 2.2
12/5/2020 6:00:00 AM 7.311 2.2307
12/5/2020 6:00:00 AM 5.87 42.566 0.192 7.09 11.54 11.59
12/5/2020 6:15:00 AM 5.83 42.494 0.194 7.09 9.46 11.6
12/5/2020 6:15:00 AM 7.3951 2.2579
12/5/2020 6:30:00 AM 7.4098 2.2473
12/5/2020 6:30:00 AM 5.86 42.548 0.191 7.1 11.18 11.57
12/5/2020 6:45:00 AM 5.82 42.476 0.196 7.1 10.05 11.59
12/5/2020 6:45:00 AM 7.4266 2.2416
12/5/2020 7:00:00 AM 7.4375 2.2203
12/5/2020 7:00:00 AM 5.82 42.476 0.195 7.09 8.54 11.58
12/5/2020 7:15:00 AM 5.83 42.494 0.196 7.1 9.5 11.58
12/5/2020 7:15:00 AM 7.4375 2.2436
12/5/2020 7:30:00 AM 7.4384 2.2562
12/5/2020 7:30:00 AM 5.82 42.476 0.196 7.1 8.52 11.57
12/5/2020 7:45:00 AM 5.82 42.476 0.196 7.1 7.63 11.56
12/5/2020 7:45:00 AM 7.4332 2.2532
12/5/2020 8:00:00 AM 7.4349 2.2334
12/5/2020 8:00:00 AM 5.83 42.494 0.197 7.12 8.2 11.56
12/5/2020 8:15:00 AM 5.84 42.512 0.196 7.13 7.52 11.57
12/5/2020 8:15:00 AM 7.4419 2.237
12/5/2020 8:30:00 AM 7.4478 2.2182
12/5/2020 8:30:00 AM 5.85 42.53 0.196 7.12 8.06 11.57
12/5/2020 8:45:00 AM 5.87 42.566 0.196 7.14 8.38 11.57
12/5/2020 8:45:00 AM 7.448 2.1
12/5/2020 9:00:00 AM 7.4515 2.2451
12/5/2020 9:00:00 AM 5.87 42.566 0.197 7.14 7.13 11.6
12/5/2020 9:15:00 AM 5.87 42.566 0.197 7.13 6.22 11.6
12/5/2020 9:15:00 AM 7.4559 2.3283
12/5/2020 9:30:00 AM 7.4551 2.2928
12/5/2020 9:30:00 AM 5.89 42.602 0.196 7.13 7.13 11.61
12/5/2020 9:45:00 AM 5.91 42.638 0.197 7.13 6.15 11.62
12/5/2020 9:45:00 AM 7.4543 2.2766
12/5/2020 10:00:00 AM 7.4579 2.2372
12/5/2020 10:00:00 AM 5.91 42.638 0.197 7.14 7.4 11.66
12/5/2020 10:15:00 AM 5.95 42.71 0.197 7.14 7.25 11.69
12/5/2020 10:15:00 AM 7.4606 2.2438
12/5/2020 10:30:00 AM 7.4637 2.2578
12/5/2020 10:30:00 AM 5.97 42.746 0.197 7.15 7.39 11.72
12/5/2020 10:45:00 AM 5.99 42.782 0.198 7.16 6.39 11.75
12/5/2020 10:45:00 AM 7.4641 2.2455
12/5/2020 11:00:00 AM 7.4663 2.2397
12/5/2020 11:00:00 AM 6.04 42.872 0.197 7.17 7.24 11.73
12/5/2020 11:15:00 AM 6.05 42.89 0.198 7.16 7.23 11.79
12/5/2020 11:15:00 AM 7.4688 2.1492
12/5/2020 11:30:00 AM 7.4739 2.1322
12/5/2020 11:30:00 AM 6.1 42.98 0.197 7.17 6.47 11.82
12/5/2020 11:45:00 AM 6.13 43.034 0.197 7.17 7.95 11.85
12/5/2020 11:45:00 AM 7.4746 2.2
12/5/2020 12:00:00 PM 7.4803 2.1458
12/5/2020 12:00:00 PM 6.17 43.106 0.197 7.18 5.58 11.89
12/5/2020 12:15:00 PM 6.19 43.142 0.198 7.19 6.03 11.9
12/5/2020 12:15:00 PM 7.4847 2.1629
12/5/2020 12:30:00 PM 7.4887 2.1289
12/5/2020 12:30:00 PM 6.18 43.124 0.198 7.18 5.81 11.94
12/5/2020 12:45:00 PM 6.2 43.16 0.198 7.18 4.93 11.95
12/5/2020 12:45:00 PM 7.4928 2.1865
12/5/2020 1:00:00 PM 7.4975 2.2163
12/5/2020 1:00:00 PM 6.22 43.196 0.197 7.18 5.97 11.96
12/5/2020 1:15:00 PM 6.26 43.268 0.198 7.19 6.19 12
12/5/2020 1:15:00 PM 7.5018 2.2417
12/5/2020 1:30:00 PM 7.5075 2.2397
12/5/2020 1:30:00 PM 6.27 43.286 0.198 7.19 4.79 11.98
12/5/2020 1:45:00 PM 6.3 43.34 0.199 7.19 4.83 12.02
12/5/2020 1:45:00 PM 7.514 2.2438
12/5/2020 2:00:00 PM 7.5195 2.2532
12/5/2020 2:00:00 PM 6.31 43.358 0.199 7.2 5.99 12.03
12/5/2020 2:15:00 PM 6.31 43.358 0.199 7.21 5.21 12.03
12/5/2020 2:15:00 PM 7.5205 2.2494
12/5/2020 2:30:00 PM 7.5212 2.242
12/5/2020 2:30:00 PM 6.35 43.43 0.2 7.21 6.14 12.04
12/5/2020 2:45:00 PM 6.33 43.394 0.2 7.21 5.7 12.06
12/5/2020 2:45:00 PM 7.525 2.226
12/5/2020 3:00:00 PM 7.5311 2.2449
12/5/2020 3:00:00 PM 6.32 43.376 0.2 7.21 5.52 12.05
12/5/2020 3:15:00 PM 6.3 43.34 0.202 7.21 6.31 12.05
12/5/2020 3:15:00 PM 7.5388 2.3355
12/5/2020 3:30:00 PM 7.5377 2.3153
12/5/2020 3:30:00 PM 6.31 43.358 0.202 7.22 5.51 12.03
12/5/2020 3:45:00 PM 6.31 43.358 0.202 7.22 5.16 12.01
12/5/2020 3:45:00 PM 7.5396 2.3498
12/5/2020 4:00:00 PM 7.5456 2.4889
12/5/2020 4:00:00 PM 6.3 43.34 0.203 7.22 5.75 11.99
12/5/2020 4:15:00 PM 6.29 43.322 0.204 7.22 6.06 11.97
12/5/2020 4:15:00 PM 7.5439 2.5131
12/5/2020 4:30:00 PM 7.5499 2.3721
12/5/2020 4:30:00 PM 6.27 43.286 0.204 7.24 6.14 11.95
12/5/2020 4:45:00 PM 6.27 43.286 0.203 7.22 5.97 11.94
12/5/2020 4:45:00 PM 7.5547 2.3669
12/5/2020 5:00:00 PM 7.5549 2.2844
12/5/2020 5:00:00 PM 6.26 43.268 0.205 7.22 6.72 11.91
12/5/2020 5:15:00 PM 6.26 43.268 0.205 7.22 7.26 11.92
12/5/2020 5:15:00 PM 7.5552 2.2552
12/5/2020 5:30:00 PM 7.5559 2.2116
12/5/2020 5:30:00 PM 6.25 43.25 0.206 7.22 6.6 11.89
12/5/2020 5:45:00 PM 6.25 43.25 0.206 7.22 5.98 11.87
12/5/2020 5:45:00 PM 7.5572 2.2
12/5/2020 6:00:00 PM 7.5539 2.3428
12/5/2020 6:00:00 PM 6.24 43.232 0.207 7.22 7.23 11.87
12/5/2020 6:15:00 PM 6.24 43.232 0.208 7.22 6.02 11.85
12/5/2020 6:15:00 PM 7.55 2.3496
12/5/2020 6:30:00 PM 7.5494 2.349
12/5/2020 6:30:00 PM 6.22 43.196 0.208 7.22 6.82 11.85
12/5/2020 6:45:00 PM 6.22 43.196 0.208 7.22 7.53 11.84
12/5/2020 6:45:00 PM 7.5509 2.3497
12/5/2020 7:00:00 PM 7.5509 2.3599
12/5/2020 7:00:00 PM 6.22 43.196 0.209 7.22 6.12 11.83
12/5/2020 7:15:00 PM 6.21 43.178 0.209 7.22 7.84 11.82
12/5/2020 7:15:00 PM 7.5202 2.4412
12/5/2020 7:30:00 PM 7.5364 2.3402
12/5/2020 7:30:00 PM 6.2 43.16 0.209 7.22 7.14 11.8
12/5/2020 7:45:00 PM 6.2 43.16 0.21 7.22 7.58 11.78
12/5/2020 7:45:00 PM 7.5348 2.3431
12/5/2020 8:00:00 PM 7.5324 2.3459
12/5/2020 8:00:00 PM 6.19 43.142 0.209 7.25 6.97 11.8
12/5/2020 8:15:00 PM 6.17 43.106 0.21 7.24 7.48 11.77
12/5/2020 8:15:00 PM 7.5318 2.3526
12/5/2020 8:30:00 PM 7.5333 2.3455
12/5/2020 8:30:00 PM 6.16 43.088 0.209 7.24 7.16 11.78
12/5/2020 8:45:00 PM 6.15 43.07 0.209 7.24 8.36 11.76
12/5/2020 8:45:00 PM 7.5376 2.3999
12/5/2020 9:00:00 PM 7.5325 2.3288
12/5/2020 9:00:00 PM 6.14 43.052 0.209 7.24 7.69 11.75
12/5/2020 9:15:00 PM 6.13 43.034 0.21 7.25 6.08 11.77
12/5/2020 9:15:00 PM 7.5272 2.2954
12/5/2020 9:30:00 PM 7.5244 2.3405
12/5/2020 9:30:00 PM 6.12 43.016 0.209 7.25 6.37 11.72
12/5/2020 9:45:00 PM 6.1 42.98 0.208 7.25 5.75 11.72
12/5/2020 9:45:00 PM 7.5259 2.3068
12/5/2020 10:00:00 PM 7.5293 2.3221
12/5/2020 10:00:00 PM 6.09 42.962 0.208 7.24 6.21 11.71
12/5/2020 10:15:00 PM 6.08 42.944 0.208 7.24 7.24 11.7
12/5/2020 10:15:00 PM 7.5241 2.3204
12/5/2020 10:30:00 PM 7.5196 2.3219
12/5/2020 10:30:00 PM 6.06 42.908 0.209 7.24 6.53 11.71
12/5/2020 10:45:00 PM 6.03 42.854 0.207 7.24 6.94 11.7
12/5/2020 10:45:00 PM 7.513 2.3117
12/5/2020 11:00:00 PM 7.5108 2.3419
12/5/2020 11:00:00 PM 6.02 42.836 0.207 7.25 6.87 11.68
12/5/2020 11:15:00 PM 6.01 42.818 0.206 7.24 7.1 11.69
12/5/2020 11:15:00 PM 7.5113 2.3353
12/5/2020 11:30:00 PM 7.5109 2.4489
12/5/2020 11:30:00 PM 6 42.8 0.206 7.25 8.72 11.68
12/5/2020 11:45:00 PM 5.97 42.746 0.206 7.23 6.77 11.68
12/5/2020 11:45:00 PM 7.511 2.5
12/6/2020 12:00:00 AM 7.5104 2.4417
12/6/2020 12:00:00 AM 5.97 42.746 0.205 7.23 6.89 11.66
12/6/2020 12:15:00 AM 5.95 42.71 0.205 7.23 6.57 11.66
12/6/2020 12:15:00 AM 7.5104 2.4417
12/6/2020 12:30:00 AM 7.5071 2.4454
12/6/2020 12:30:00 AM 5.93 42.674 0.205 7.23 6.07 11.65
12/6/2020 12:45:00 AM 5.92 42.656 0.204 7.23 7.63 11.64
12/6/2020 12:45:00 AM 7.5076 2.4235
12/6/2020 1:00:00 AM 7.5062 2.4525
12/6/2020 1:00:00 AM 5.9 42.62 0.204 7.23 7.07 11.65
12/6/2020 1:15:00 AM 5.88 42.584 0.204 7.22 6.57 11.62
12/6/2020 1:15:00 AM 7.508 2.554
12/6/2020 1:30:00 AM 7.5151 2.5377
12/6/2020 1:30:00 AM 5.87 42.566 0.203 7.22 7.64 11.63
12/6/2020 1:45:00 AM 5.84 42.512 0.203 7.22 7.07 11.6
12/6/2020 1:45:00 AM 7.5241 2.5295
12/6/2020 2:00:00 AM 7.5339 2.521
12/6/2020 2:00:00 AM 5.82 42.476 0.202 7.22 7.76 11.6
12/6/2020 2:15:00 AM 5.81 42.458 0.202 7.21 6.81 11.62
12/6/2020 2:15:00 AM 7.5436 2.593
12/6/2020 2:30:00 AM 7.5577 2.6462
12/6/2020 2:30:00 AM 5.77 42.386 0.202 7.22 6.08 11.59
12/6/2020 2:45:00 AM 5.75 42.35 0.202 7.21 6.27 11.61
12/6/2020 2:45:00 AM 7.5656 2.6001
12/6/2020 3:00:00 AM 7.5774 2.5767
12/6/2020 3:00:00 AM 5.72 42.296 0.201 7.21 6.42 11.59
12/6/2020 3:15:00 AM 5.69 42.242 0.202 7.21 6.5 11.6
12/6/2020 3:15:00 AM 7.6015 2.5677
12/6/2020 3:30:00 AM 7.6072 2.6133
12/6/2020 3:30:00 AM 5.67 42.206 0.201 7.21 6.36 11.59
12/6/2020 3:45:00 AM 5.63 42.134 0.199 7.22 6.24 11.58
12/6/2020 3:45:00 AM 7.6015 2.529
12/6/2020 4:00:00 AM 7.334 2.5603
12/6/2020 4:00:00 AM 5.59 42.062 0.201 7.2 6.84 11.6
12/6/2020 4:15:00 AM 5.56 42.008 0.201 7.2 6.35 11.6
12/6/2020 4:15:00 AM 7.4737 2.5455
12/6/2020 4:30:00 AM 7.5616 2.5674
12/6/2020 4:30:00 AM 5.52 41.936 0.2 7.21 6.64 11.58
12/6/2020 4:45:00 AM 5.5 41.9 0.2 7.21 6.09 11.58
12/6/2020 4:45:00 AM 7.5893 2.5012
12/6/2020 5:00:00 AM 7.6245 2.4472
12/6/2020 5:00:00 AM 5.46 41.828 0.199 7.2 6.61 11.6
12/6/2020 5:15:00 AM 5.44 41.792 0.198 7.2 6.05 11.6
12/6/2020 5:15:00 AM 7.6408 2.4824
12/6/2020 5:30:00 AM 7.6582 2.5337
12/6/2020 5:30:00 AM 5.4 41.72 0.2 7.19 6.04 11.6
12/6/2020 5:45:00 AM 5.37 41.666 0.201 7.19 6.11 11.6
12/6/2020 5:45:00 AM 7.6594 2.6
12/6/2020 6:00:00 AM
12/6/2020 6:00:00 AM 5.34 41.612 0.199 7.19 6.71 11.59
12/6/2020 6:15:00 AM 5.31 41.558 0.199 7.19 6.09 11.59
12/6/2020 6:15:00 AM
12/6/2020 6:30:00 AM
12/6/2020 6:30:00 AM 5.29 41.522 0.199 7.2 6.88 11.6
12/6/2020 6:45:00 AM 5.23 41.414 0.198 7.19 6.09 11.59
12/6/2020 6:45:00 AM
12/6/2020 7:00:00 AM
12/6/2020 7:00:00 AM 5.18 41.324 0.198 7.19 5.99 11.61
12/6/2020 7:15:00 AM 5.17 41.306 0.198 7.18 6.03 11.61
12/6/2020 7:15:00 AM
12/6/2020 7:30:00 AM
12/6/2020 7:30:00 AM 5.13 41.234 0.198 7.18 6.12 11.62
12/6/2020 7:45:00 AM 5.1 41.18 0.198 7.18 5.84 11.61
12/6/2020 7:45:00 AM
12/6/2020 8:00:00 AM
12/6/2020 8:00:00 AM 5.07 41.126 0.198 7.18 6.16 11.64
12/6/2020 8:15:00 AM 5.06 41.108 0.198 7.19 5.77 11.65
12/6/2020 8:15:00 AM
12/6/2020 8:30:00 AM
12/6/2020 8:30:00 AM 5.01 41.018 0.198 7.17 5.67 11.67
12/6/2020 8:45:00 AM 5 41 0.198 7.18 5.7 11.66
12/6/2020 8:45:00 AM
12/6/2020 9:00:00 AM 7.7251 2.4187
12/6/2020 9:00:00 AM 5 41 0.197 7.18 5.89 11.71
12/6/2020 9:15:00 AM 5 41 0.197 7.17 5.61 11.74
12/6/2020 9:15:00 AM 7.7284 2.5415
12/6/2020 9:30:00 AM 7.734 2.82
12/6/2020 9:30:00 AM 5.02 41.036 0.197 7.18 5.58 11.77
12/6/2020 9:45:00 AM 5.01 41.018 0.197 7.18 5.43 11.81
12/6/2020 9:45:00 AM 7.7258 3.0338
12/6/2020 10:00:00 AM 7.727 2.599
12/6/2020 10:00:00 AM 5.04 41.072 0.196 7.18 5.77 11.85
12/6/2020 10:15:00 AM 5.06 41.108 0.196 7.18 5.42 11.88
12/6/2020 10:15:00 AM 7.7282 2.5064
12/6/2020 10:30:00 AM 7.7293 2.4471
12/6/2020 10:30:00 AM 5.1 41.18 0.196 7.18 5.55 11.92
12/6/2020 10:45:00 AM 5.12 41.216 0.196 7.18 5.53 11.96
12/6/2020 10:45:00 AM 7.7282 2.4262
12/6/2020 11:00:00 AM 7.7288 2.4332
12/6/2020 11:00:00 AM 5.17 41.306 0.196 7.18 5.18 12
12/6/2020 11:15:00 AM 5.19 41.342 0.196 7.19 4.99 12.03
12/6/2020 11:15:00 AM 7.728 2.4516
12/6/2020 11:30:00 AM 7.7285 2.4012
12/6/2020 11:30:00 AM 5.2 41.36 0.196 7.19 4.78 12.07
12/6/2020 11:45:00 AM 5.21 41.378 0.195 7.2 4.69 12.12
12/6/2020 11:45:00 AM 7.7308 2.4001
12/6/2020 12:00:00 PM
12/6/2020 12:00:00 PM 5.27 41.486 0.195 7.2 5.57 12.16
12/6/2020 12:15:00 PM 5.32 41.576 0.195 7.21 4.8 12.19
12/6/2020 12:15:00 PM
12/6/2020 12:30:00 PM
12/6/2020 12:30:00 PM 5.39 41.702 0.195 7.22 4.95 12.23
12/6/2020 12:45:00 PM 5.43 41.774 0.195 7.22 5.34 12.3
12/6/2020 12:45:00 PM
12/6/2020 1:00:00 PM
12/6/2020 1:00:00 PM 5.49 41.882 0.195 7.23 4.95 12.33
12/6/2020 1:15:00 PM 5.52 41.936 0.195 7.24 4.91 12.37
12/6/2020 1:15:00 PM
12/6/2020 1:30:00 PM
12/6/2020 1:30:00 PM 5.56 42.008 0.195 7.25 5.39 12.4
12/6/2020 1:45:00 PM 5.58 42.044 0.194 7.25 5.53 12.42
12/6/2020 1:45:00 PM
12/6/2020 2:00:00 PM
12/6/2020 2:00:00 PM 5.63 42.134 0.194 7.26 5.24 12.45
12/6/2020 2:15:00 PM 5.63 42.134 0.195 7.26 4.7 12.45
12/6/2020 2:15:00 PM
12/6/2020 2:30:00 PM
12/6/2020 2:30:00 PM 5.62 42.116 0.194 7.27 4.67 12.48
12/6/2020 2:45:00 PM 5.61 42.098 0.195 7.27 5.01 12.49
12/6/2020 2:45:00 PM
12/6/2020 3:00:00 PM
12/6/2020 3:00:00 PM 5.6 42.08 0.194 7.27 4.79 12.5
12/6/2020 3:15:00 PM 5.58 42.044 0.194 7.29 4.91 12.53
12/6/2020 3:15:00 PM
12/6/2020 3:30:00 PM
12/6/2020 3:30:00 PM 5.57 42.026 0.194 7.29 3.65 12.53
12/6/2020 3:45:00 PM 5.55 41.99 0.194 7.29 4.53 12.55
12/6/2020 3:45:00 PM
12/6/2020 4:00:00 PM
12/6/2020 4:00:00 PM 5.53 41.954 0.194 7.29 4.13 12.53
12/6/2020 4:15:00 PM 5.5 41.9 0.194 7.29 4.17 12.56
12/6/2020 4:15:00 PM
12/6/2020 4:30:00 PM
12/6/2020 4:30:00 PM 5.46 41.828 0.194 7.29 4.89 12.54
12/6/2020 4:45:00 PM 5.41 41.738 0.195 7.29 3.72 12.51
12/6/2020 4:45:00 PM
12/6/2020 5:00:00 PM
12/6/2020 5:00:00 PM 5.38 41.684 0.193 7.29 4.61 12.51
12/6/2020 5:15:00 PM 5.34 41.612 0.194 7.29 3.89 12.5
12/6/2020 5:15:00 PM
12/6/2020 5:30:00 PM
12/6/2020 5:30:00 PM 5.31 41.558 0.194 7.29 4.24 12.48
12/6/2020 5:45:00 PM 5.27 41.486 0.195 7.29 4.51 12.48
12/6/2020 5:45:00 PM
12/6/2020 6:00:00 PM 7.9869 2.2247
12/6/2020 6:00:00 PM 5.25 41.45 0.193 7.28 4.47 12.43
12/6/2020 6:15:00 PM 5.2 41.36 0.195 7.28 4.94 12.43
12/6/2020 6:15:00 PM 8.011 2.2321
12/6/2020 6:30:00 PM 8.0303 2.2206
12/6/2020 6:30:00 PM 5.17 41.306 0.189 7.27 4.73 12.43
12/6/2020 6:45:00 PM 5.15 41.27 0.194 7.3 4.23 12.43
12/6/2020 6:45:00 PM 8.0437 2.2104
12/6/2020 7:00:00 PM 8.048 2.1036
12/6/2020 7:00:00 PM 5.1 41.18 0.194 7.3 3.92 12.4
12/6/2020 7:15:00 PM 5.06 41.108 0.194 7.28 4.47 12.39
12/6/2020 7:15:00 PM 8.0392 2.0619
12/6/2020 7:30:00 PM 8.034 2.0649
12/6/2020 7:30:00 PM 5.02 41.036 0.19 7.29 4.33 12.4
12/6/2020 7:45:00 PM 4.98 40.964 0.19 7.29 3.95 12.37
12/6/2020 7:45:00 PM 8.03 2.0638
12/6/2020 8:00:00 PM 8.0195 2.0647
12/6/2020 8:00:00 PM 4.93 40.874 0.19 7.28 3.9 12.37
12/6/2020 8:15:00 PM 4.89 40.802 0.19 7.28 4.27 12.36
12/6/2020 8:15:00 PM 7.9813 2.1983
12/6/2020 8:30:00 PM 7.9584 2.2332
12/6/2020 8:30:00 PM 4.86 40.748 0.19 7.27 3.75 12.34
12/6/2020 8:45:00 PM 4.82 40.676 0.19 7.27 3.76 12.38
12/6/2020 8:45:00 PM 8.001 2.2001
12/6/2020 9:00:00 PM 8.0164 2.1582
12/6/2020 9:00:00 PM 4.78 40.604 0.189 7.27 3.9 12.36
12/6/2020 9:15:00 PM 4.74 40.532 0.19 7.27 3.39 12.35
12/6/2020 9:15:00 PM 8.0156 2.1537
12/6/2020 9:30:00 PM 8.0112 2.151
12/6/2020 9:30:00 PM 4.69 40.442 0.181 7.27 4.34 12.38
12/6/2020 9:45:00 PM 4.66 40.388 0.174 7.28 3.88 12.38
12/6/2020 9:45:00 PM 8.0046 2.1424
12/6/2020 10:00:00 PM 7.9985 2.1437
12/6/2020 10:00:00 PM 4.62 40.316 0.194 7.28 5.15 12.38
12/6/2020 10:15:00 PM 4.59 40.262 0.195 7.27 3.93 12.38
12/6/2020 10:15:00 PM 7.9934 2.1488
12/6/2020 10:30:00 PM 7.9893 2.1492
12/6/2020 10:30:00 PM 4.55 40.19 0.194 7.26 4.27 12.39
12/6/2020 10:45:00 PM 4.5 40.1 0.186 7.27 4.34 12.38
12/6/2020 10:45:00 PM 7.9854 2.154
12/6/2020 11:00:00 PM 7.9829 2.142
12/6/2020 11:00:00 PM 4.48 40.064 0.188 7.27 3.32 12.39
12/6/2020 11:15:00 PM 4.45 40.01 0.19 7.26 3.96 12.39
12/6/2020 11:15:00 PM 7.9709 2.2422
12/6/2020 11:30:00 PM 7.9609 2.2071
12/6/2020 11:30:00 PM 4.41 39.938 0.19 7.26 4.48 12.38
12/6/2020 11:45:00 PM 4.36 39.848 0.19 7.26 3.57 12.39
12/6/2020 11:45:00 PM 7.9618 2.2013
12/7/2020 12:00:00 AM 7.951 2.1431
12/7/2020 12:00:00 AM 4.34 39.812 0.191 7.27 3.58 12.38
12/7/2020 12:15:00 AM 4.3 39.74 0.192 7.26 3.38 12.39
12/7/2020 12:15:00 AM 7.9419 2.2047
12/7/2020 12:30:00 AM 7.9353 2.2542
12/7/2020 12:30:00 AM 4.28 39.704 0.189 7.25 3.93 12.38
12/7/2020 12:45:00 AM 4.23 39.614 0.18 7.26 3.99 12.37
12/7/2020 12:45:00 AM 7.9353 2.2432
12/7/2020 1:00:00 AM 7.9319 2.1758
12/7/2020 1:00:00 AM 4.19 39.542 0.196 7.26 3.56 12.38
12/7/2020 1:15:00 AM 4.15 39.47 0.196 7.26 3.58 12.37
12/7/2020 1:15:00 AM 7.9234 2.142
12/7/2020 1:30:00 AM 7.9171 2.1682
12/7/2020 1:30:00 AM 4.13 39.434 0.195 7.25 3.47 12.37
12/7/2020 1:45:00 AM 4.09 39.362 0.196 7.25 3.07 12.37
12/7/2020 1:45:00 AM 7.9113 2.1439
12/7/2020 2:00:00 AM 7.9003 2.126
12/7/2020 2:00:00 AM 4.04 39.272 0.196 7.25 3.28 12.37
12/7/2020 2:15:00 AM 4.01 39.218 0.197 7.25 3.5 12.37
12/7/2020 2:15:00 AM 7.8905 2.1355
12/7/2020 2:30:00 AM 7.8844 2.1432
12/7/2020 2:30:00 AM 3.97 39.146 0.196 7.24 3.51 12.37
12/7/2020 2:45:00 AM 3.97 39.146 0.196 7.26 3.02 12.38
12/7/2020 2:45:00 AM 7.8862 2.1
12/7/2020 3:00:00 AM 7.8807 2.1328
12/7/2020 3:00:00 AM 3.91 39.038 0.196 7.23 3.99 12.37
12/7/2020 3:15:00 AM 3.88 38.984 0.195 7.22 3.62 12.38
12/7/2020 3:15:00 AM 7.8786 2.1362
12/7/2020 3:30:00 AM 7.8762 2.1376
12/7/2020 3:30:00 AM 3.85 38.93 0.182 7.23 4.43 12.38
12/7/2020 3:45:00 AM 3.83 38.894 0.197 7.24 3.29 12.38
12/7/2020 3:45:00 AM 7.6851 2.1531
12/7/2020 4:00:00 AM 7.6261 2.1381
12/7/2020 4:00:00 AM 3.75 38.75 0.197 7.23 4.43 12.38
12/7/2020 4:15:00 AM 3.72 38.696 0.197 7.23 2.84 12.39
12/7/2020 4:15:00 AM 7.8207 2.1242
12/7/2020 4:30:00 AM 7.8629 2.1295
12/7/2020 4:30:00 AM 3.68 38.624 0.191 7.23 3.66 12.4
12/7/2020 4:45:00 AM 3.68 38.624 0.197 7.23 3.68 12.38
12/7/2020 4:45:00 AM 7.87 2.1542
12/7/2020 5:00:00 AM 7.8795 2.1571
12/7/2020 5:00:00 AM 3.64 38.552 0.197 7.22 3.36 12.39
12/7/2020 5:15:00 AM 3.59 38.462 0.198 7.23 3.18 12.39
12/7/2020 5:15:00 AM 7.8873 2.1627
12/7/2020 5:30:00 AM 7.8877 2.1609
12/7/2020 5:30:00 AM 3.57 38.426 0.198 7.22 2.72 12.37
12/7/2020 5:45:00 AM 3.54 38.372 0.192 7.23 3.46 12.38
12/7/2020 5:45:00 AM 7.8932 2.1999
12/7/2020 6:00:00 AM 7.8963 2.1451
12/7/2020 6:00:00 AM 3.5 38.3 0.192 7.21 4.11 12.41
12/7/2020 6:15:00 AM 3.49 38.282 0.197 7.22 2.69 12.38
12/7/2020 6:15:00 AM 7.8963 2.1636
12/7/2020 6:30:00 AM 7.8963 2.1503
12/7/2020 6:30:00 AM 3.43 38.174 0.197 7.22 2.8 12.4
12/7/2020 6:45:00 AM 3.41 38.138 0.198 7.22 3.18 12.41
12/7/2020 6:45:00 AM 7.9005 2.1431
12/7/2020 7:00:00 AM 7.9054 2.1468
12/7/2020 7:00:00 AM 3.38 38.084 0.198 7.22 3.18 12.41
12/7/2020 7:15:00 AM 3.33 37.994 0.198 7.22 3.08 12.41
12/7/2020 7:15:00 AM 7.9036 2.1401
12/7/2020 7:30:00 AM 7.9011 2.1556
12/7/2020 7:30:00 AM 3.34 38.012 0.198 7.21 3.21 12.41
12/7/2020 7:45:00 AM 3.32 37.976 0.198 7.21 3.68 12.42
12/7/2020 7:45:00 AM 7.9038 2.1628
12/7/2020 8:00:00 AM 7.8999 2.1526
12/7/2020 8:00:00 AM 3.29 37.922 0.199 7.2 3.49 12.46
12/7/2020 8:15:00 AM 3.3 37.94 0.199 7.2 3.38 12.48
12/7/2020 8:15:00 AM 7.895 2.1569
12/7/2020 8:30:00 AM 7.8927 2.1387
12/7/2020 8:30:00 AM 3.26 37.868 0.199 7.21 3.72 12.49
12/7/2020 8:45:00 AM 3.25 37.85 0.199 7.21 4.19 12.53
12/7/2020 8:45:00 AM 7.8862 2.1001
12/7/2020 9:00:00 AM 7.8928 2.1791
12/7/2020 9:00:00 AM 3.25 37.85 0.199 7.2 4.28 12.54
12/7/2020 9:15:00 AM 3.3 37.94 0.199 7.21 3.4 12.61
12/7/2020 9:15:00 AM 7.896 2.1868
12/7/2020 9:30:00 AM 7.8935 2.1301
12/7/2020 9:30:00 AM 3.31 37.958 0.2 7.21 2.9 12.65
12/7/2020 9:45:00 AM 3.33 37.994 0.2 7.21 3.27 12.69
12/7/2020 9:45:00 AM 7.8924 2.1505
12/7/2020 10:00:00 AM 7.8905 2.1501
12/7/2020 10:00:00 AM 3.33 37.994 0.199 7.22 2.66 12.69
12/7/2020 10:15:00 AM 3.32 37.976 0.2 7.23 2.97 12.74
12/7/2020 10:15:00 AM 7.8907 2.1613
12/7/2020 10:30:00 AM 7.8922 2.1507
12/7/2020 10:30:00 AM 3.39 38.102 0.199 7.23 3.08 12.8
12/7/2020 10:45:00 AM 3.43 38.174 0.199 7.24 2.89 12.85
12/7/2020 10:45:00 AM 7.8919 2.1595
12/7/2020 11:00:00 AM 7.8947 2.1402
12/7/2020 11:00:00 AM 3.46 38.228 0.199 7.22 3.22 12.89
12/7/2020 11:15:00 AM 3.54 38.372 0.2 7.23 3.35 12.94
12/7/2020 11:15:00 AM 7.8957 2.1571
12/7/2020 11:30:00 AM 7.8979 2.1551
12/7/2020 11:30:00 AM 3.62 38.516 0.2 7.25 2.82 12.97
12/7/2020 11:45:00 AM 3.68 38.624 0.2 7.25 3 13
12/7/2020 11:45:00 AM 7.903 2.1001
12/7/2020 12:00:00 PM 7.9084 2.1456
12/7/2020 12:00:00 PM 3.71 38.678 0.2 7.26 3.47 13.07
12/7/2020 12:15:00 PM 3.78 38.804 0.2 7.26 3.26 13.09
12/7/2020 12:15:00 PM 7.9121 2.0819
12/7/2020 12:30:00 PM 7.9146 2.053
12/7/2020 12:30:00 PM 3.84 38.912 0.2 7.28 2.9 13.14
12/7/2020 12:45:00 PM 3.89 39.002 0.195 7.28 2.7 13.17
12/7/2020 12:45:00 PM 7.9152 2.0513
12/7/2020 1:00:00 PM 7.9197 2.1235
12/7/2020 1:00:00 PM 3.92 39.056 0.192 7.29 2.81 13.19
12/7/2020 1:15:00 PM 3.95 39.11 0.191 7.3 2.77 13.22
12/7/2020 1:15:00 PM 7.9284 2.2304
12/7/2020 1:30:00 PM 7.93 2.2422
12/7/2020 1:30:00 PM 3.99 39.182 0.191 7.3 2.49 13.25
12/7/2020 1:45:00 PM 4.02 39.236 0.192 7.3 2.86 13.28
12/7/2020 1:45:00 PM 7.9372 2.2479
12/7/2020 2:00:00 PM 7.9427 2.2914
12/7/2020 2:00:00 PM 4.04 39.272 0.191 7.3 2.65 13.27
12/7/2020 2:15:00 PM 4.07 39.326 0.192 7.32 2.28 13.27
12/7/2020 2:15:00 PM 7.9448 2.3312
12/7/2020 2:30:00 PM 7.9404 2.2276
12/7/2020 2:30:00 PM 4.08 39.344 0.191 7.32 2.97 13.3
12/7/2020 2:45:00 PM 4.09 39.362 0.194 7.33 3.41 13.32
12/7/2020 2:45:00 PM 7.9406 2.2364
12/7/2020 3:00:00 PM 7.9466 2.1478
12/7/2020 3:00:00 PM 4.1 39.38 0.198 7.33 2.47 13.33
12/7/2020 3:15:00 PM 4.09 39.362 0.197 7.33 2.82 13.34
12/7/2020 3:15:00 PM 7.952 2.0724
12/7/2020 3:30:00 PM 7.9602 2.0368
12/7/2020 3:30:00 PM 4.07 39.326 0.197 7.33 2.51 13.32
12/7/2020 3:45:00 PM 4.04 39.272 0.197 7.34 2.16 13.32
12/7/2020 3:45:00 PM 7.9685 2.0135
12/7/2020 4:00:00 PM 7.9733 2.0378
12/7/2020 4:00:00 PM 4 39.2 0.197 7.34 2.74 13.34
12/7/2020 4:15:00 PM 3.95 39.11 0.197 7.34 2.69 13.32
12/7/2020 4:15:00 PM 7.9746 1.1703
12/7/2020 4:30:00 PM 7.9764 1.0997
12/7/2020 4:30:00 PM 3.91 39.038 0.197 7.34 2.69 13.31
12/7/2020 4:45:00 PM 3.86 38.948 0.197 7.34 3.14 13.29
12/7/2020 4:45:00 PM 7.9822 1.1305
12/7/2020 5:00:00 PM 7.987 1.126
12/7/2020 5:00:00 PM 3.81 38.858 0.187 7.34 2.6 13.29
12/7/2020 5:15:00 PM 3.76 38.768 0.199 7.33 2.84 13.25
12/7/2020 5:15:00 PM 7.9929 1.1277
12/7/2020 5:30:00 PM 7.9966 1.1344
12/7/2020 5:30:00 PM 3.7 38.66 0.194 7.34 2.57 13.25
12/7/2020 5:45:00 PM 3.66 38.588 0.199 7.33 2.44 13.23
12/7/2020 5:45:00 PM 7.9982 1.1998
12/7/2020 6:00:00 PM
12/7/2020 6:00:00 PM 3.61 38.498 0.192 7.33 2.52 13.22
12/7/2020 6:15:00 PM 3.57 38.426 0.201 7.33 2.95 13.2
12/7/2020 6:15:00 PM
12/7/2020 6:30:00 PM
12/7/2020 6:30:00 PM 3.53 38.354 0.201 7.31 2.57 13.18
12/7/2020 6:45:00 PM 3.5 38.3 0.201 7.31 2.4 13.16
12/7/2020 6:45:00 PM
12/7/2020 7:00:00 PM
12/7/2020 7:00:00 PM 3.46 38.228 0.2 7.32 2.64 13.16
12/7/2020 7:15:00 PM 3.42 38.156 0.192 7.32 2.63 13.13
12/7/2020 7:15:00 PM
12/7/2020 7:30:00 PM
12/7/2020 7:30:00 PM 3.38 38.084 0.194 7.31 2.48 13.15
12/7/2020 7:45:00 PM 3.35 38.03 0.2 7.31 2.77 13.12
12/7/2020 7:45:00 PM
12/7/2020 8:00:00 PM
12/7/2020 8:00:00 PM 3.33 37.994 0.201 7.29 2.58 13.12
12/7/2020 8:15:00 PM 3.28 37.904 0.2 7.3 2.74 13.09
12/7/2020 8:15:00 PM
12/7/2020 8:30:00 PM
12/7/2020 8:30:00 PM 3.26 37.868 0.201 7.29 2.69 13.09
12/7/2020 8:45:00 PM 3.23 37.814 0.201 7.3 2.44 13.1
12/7/2020 8:45:00 PM
12/7/2020 9:00:00 PM
12/7/2020 9:00:00 PM 3.2 37.76 0.201 7.29 2.46 13.11
12/7/2020 9:15:00 PM 3.16 37.688 0.191 7.29 2.7 13.09
12/7/2020 9:15:00 PM
12/7/2020 9:30:00 PM
12/7/2020 9:30:00 PM 3.14 37.652 0.2 7.29 2.84 13.1
12/7/2020 9:45:00 PM 3.11 37.598 0.2 7.29 2.72 13.09
12/7/2020 9:45:00 PM
12/7/2020 10:00:00 PM
12/7/2020 10:00:00 PM 3.09 37.562 0.197 7.29 2.88 13.1
12/7/2020 10:15:00 PM 3.06 37.508 0.189 7.29 2.91 13.1
12/7/2020 10:15:00 PM
12/7/2020 10:30:00 PM
12/7/2020 10:30:00 PM 3.03 37.454 0.201 7.29 2.93 13.09
12/7/2020 10:45:00 PM 3.01 37.418 0.2 7.29 2.96 13.09
12/7/2020 10:45:00 PM
12/7/2020 11:00:00 PM
12/7/2020 11:00:00 PM 2.98 37.364 0.202 7.29 2.73 13.09
12/7/2020 11:15:00 PM 2.94 37.292 0.201 7.29 2.76 13.1
12/7/2020 11:15:00 PM
12/7/2020 11:30:00 PM
12/7/2020 11:30:00 PM 2.92 37.256 0.201 7.29 2.08 13.09
12/7/2020 11:45:00 PM 2.88 37.184 0.2 7.28 2.85 13.08
12/7/2020 11:45:00 PM
12/8/2020 12:00:00 AM
12/8/2020 12:00:00 AM 2.87 37.166 0.2 7.28 2.58 13.1
12/8/2020 12:15:00 AM 2.84 37.112 0.2 7.27 2.76 13.09
12/8/2020 12:15:00 AM
12/8/2020 12:30:00 AM
12/8/2020 12:30:00 AM 2.8 37.04 0.2 7.28 2.71 13.08
12/8/2020 12:45:00 AM 2.77 36.986 0.2 7.27 2.96 13.06
12/8/2020 12:45:00 AM
12/8/2020 1:00:00 AM
12/8/2020 1:00:00 AM 2.76 36.968 0.201 7.26 2.81 13.1
12/8/2020 1:15:00 AM 2.73 36.914 0.201 7.26 2.06 13.07
12/8/2020 1:15:00 AM
12/8/2020 1:30:00 AM
12/8/2020 1:30:00 AM 2.71 36.878 0.201 7.26 2.66 13.08
12/8/2020 1:45:00 AM 2.68 36.824 0.196 7.26 3.13 13.05
12/8/2020 1:45:00 AM
12/8/2020 2:00:00 AM
12/8/2020 2:00:00 AM 2.66 36.788 0.202 7.26 2.52 13.07
12/8/2020 2:15:00 AM 2.65 36.77 0.202 7.26 2.87 13.05
12/8/2020 2:15:00 AM
12/8/2020 2:30:00 AM
12/8/2020 2:30:00 AM 2.63 36.734 0.202 7.26 2.78 13.06
12/8/2020 2:45:00 AM 2.61 36.698 0.202 7.25 2.87 13.05
12/8/2020 2:45:00 AM
12/8/2020 3:00:00 AM
12/8/2020 3:00:00 AM 2.59 36.662 0.202 7.25 2.95 13.05
12/8/2020 3:15:00 AM 2.59 36.662 0.202 7.25 2.78 13.07
12/8/2020 3:15:00 AM
12/8/2020 3:30:00 AM
12/8/2020 3:30:00 AM 2.57 36.626 0.202 7.25 2.52 13.05
12/8/2020 3:45:00 AM 2.56 36.608 0.202 7.25 2.9 13.02
12/8/2020 3:45:00 AM
12/8/2020 4:00:00 AM
12/8/2020 4:00:00 AM 2.55 36.59 0.202 7.26 2.81 13.04
12/8/2020 4:15:00 AM 2.52 36.536 0.202 7.26 2.29 13.01
12/8/2020 4:15:00 AM
12/8/2020 4:30:00 AM
12/8/2020 4:30:00 AM 2.5 36.5 0.202 7.25 2.99 13.03
12/8/2020 4:45:00 AM 2.49 36.482 0.202 7.25 3.06 13.03
12/8/2020 4:45:00 AM
12/8/2020 5:00:00 AM
12/8/2020 5:00:00 AM 2.47 36.446 0.203 7.24 2.8 13.03
12/8/2020 5:15:00 AM 2.46 36.428 0.203 7.24 2.47 13.02
12/8/2020 5:15:00 AM
12/8/2020 5:30:00 AM
12/8/2020 5:30:00 AM 2.44 36.392 0.203 7.24 2.62 13.02
12/8/2020 5:45:00 AM 2.42 36.356 0.203 7.23 3.04 13
12/8/2020 5:45:00 AM
12/8/2020 6:00:00 AM 7.929 1.2202
12/8/2020 6:00:00 AM 2.41 36.338 0.203 7.24 2.94 13.01
12/8/2020 6:15:00 AM 2.38 36.284 0.203 7.23 2.98 13.02
12/8/2020 6:15:00 AM 7.9336 1.2546
12/8/2020 6:30:00 AM 7.9324 1.2292
12/8/2020 6:30:00 AM 2.34 36.212 0.203 7.24 2.33 13.03
12/8/2020 6:45:00 AM 2.33 36.194 0.203 7.24 2.83 13.02
12/8/2020 6:45:00 AM 7.9273 1.3257
12/8/2020 7:00:00 AM 7.9304 1.3496
12/8/2020 7:00:00 AM 2.3 36.14 0.203 7.24 2.69 13.01
12/8/2020 7:15:00 AM 2.28 36.104 0.203 7.23 2.81 13.02
12/8/2020 7:15:00 AM 7.9312 1.353
12/8/2020 7:30:00 AM 7.9524 1.3491
12/8/2020 7:30:00 AM 2.25 36.05 0.203 7.24 3.04 13.01
12/8/2020 7:45:00 AM 2.22 35.996 0.203 7.23 2.93 13.02
12/8/2020 7:45:00 AM 7.9814 1.3263
12/8/2020 8:00:00 AM 7.9988 1.4263
12/8/2020 8:00:00 AM 2.2 35.96 0.203 7.23 2.91 13.05
12/8/2020 8:15:00 AM 2.19 35.942 0.203 7.23 2.57 13.05
12/8/2020 8:15:00 AM 8.0095 1.3433
12/8/2020 8:30:00 AM 8.0165 1.2581
12/8/2020 8:30:00 AM 2.17 35.906 0.203 7.23 3.08 13.06
12/8/2020 8:45:00 AM 2.17 35.906 0.203 7.23 2.8 13.1
12/8/2020 8:45:00 AM 8.015 1.2999
12/8/2020 9:00:00 AM 8.0111 1.2439
12/8/2020 9:00:00 AM 2.18 35.924 0.203 7.23 2.74 13.13
12/8/2020 9:15:00 AM 2.2 35.96 0.204 7.23 2.48 13.16
12/8/2020 9:15:00 AM 8.007 1.283
12/8/2020 9:30:00 AM 8.0078 1.3494
12/8/2020 9:30:00 AM 2.22 35.996 0.204 7.23 2.63 13.2
12/8/2020 9:45:00 AM 2.27 36.086 0.203 7.24 2.76 13.23
12/8/2020 9:45:00 AM 8.0056 1.2821
12/8/2020 10:00:00 AM 8.002 1.5956
12/8/2020 10:00:00 AM 2.29 36.122 0.203 7.24 2.65 13.25
12/8/2020 10:15:00 AM 2.32 36.176 0.203 7.25 2.39 13.3
12/8/2020 10:15:00 AM 8.0035 1.2467
12/8/2020 10:30:00 AM 8.0067 1.2565
12/8/2020 10:30:00 AM 2.36 36.248 0.203 7.25 2.53 13.33
12/8/2020 10:45:00 AM 2.36 36.248 0.203 7.25 2.14 13.37
12/8/2020 10:45:00 AM 8.0065 1.2614
12/8/2020 11:00:00 AM 8.0064 1.2579
12/8/2020 11:00:00 AM 2.38 36.284 0.203 7.25 2.83 13.38
12/8/2020 11:15:00 AM 2.45 36.41 0.203 7.25 2.18 13.45
12/8/2020 11:15:00 AM 8.0054 1.2268
12/8/2020 11:30:00 AM 8.0054 1.2148
12/8/2020 11:30:00 AM 2.54 36.572 0.203 7.25 2.31 13.48
12/8/2020 11:45:00 AM 2.64 36.752 0.203 7.26 2.56 13.52
12/8/2020 11:45:00 AM 8.0038 1.2004
12/8/2020 12:00:00 PM 8.008 1.2026
12/8/2020 12:00:00 PM 2.76 36.968 0.203 7.27 2.73 13.55
12/8/2020 12:15:00 PM 2.79 37.022 0.203 7.28 2.42 13.6
12/8/2020 12:15:00 PM 8.0093 1.2596
12/8/2020 12:30:00 PM 8.0105 1.2586
12/8/2020 12:30:00 PM 2.83 37.094 0.203 7.29 2.82 13.62
12/8/2020 12:45:00 PM 2.86 37.148 0.203 7.29 2.8 13.66
12/8/2020 12:45:00 PM 8.0134 1.2432
12/8/2020 1:00:00 PM 8.0188 1.358
12/8/2020 1:00:00 PM 2.91 37.238 0.203 7.29 2.59 13.66
12/8/2020 1:15:00 PM 2.97 37.346 0.203 7.31 2.22 13.71
12/8/2020 1:15:00 PM 8.0219 1.3385
12/8/2020 1:30:00 PM 8.0203 1.7106
12/8/2020 1:30:00 PM 3.03 37.454 0.203 7.3 2.65 13.72
12/8/2020 1:45:00 PM 3.07 37.526 0.203 7.31 2.27 13.75
12/8/2020 1:45:00 PM 8.0244 1.4735
12/8/2020 2:00:00 PM 8.0329 1.4396
12/8/2020 2:00:00 PM 3.1 37.58 0.203 7.32 2.24 13.77
12/8/2020 2:15:00 PM 3.15 37.67 0.203 7.32 2.79 13.75
12/8/2020 2:15:00 PM 8.0386 1.616
12/8/2020 2:30:00 PM 8.0446 1.8044
12/8/2020 2:30:00 PM 3.18 37.724 0.203 7.33 2.1 13.77
12/8/2020 2:45:00 PM 3.19 37.742 0.204 7.34 3.09 13.79
12/8/2020 2:45:00 PM 8.0491 2.1631
12/8/2020 3:00:00 PM 8.0561 2.2009
12/8/2020 3:00:00 PM 3.18 37.724 0.203 7.35 2.25 13.79
12/8/2020 3:15:00 PM 3.18 37.724 0.204 7.34 2.41 13.78
12/8/2020 3:15:00 PM 8.0644 2.3332
12/8/2020 3:30:00 PM 8.0686 2.2553
12/8/2020 3:30:00 PM 3.17 37.706 0.204 7.34 2.66 13.79
12/8/2020 3:45:00 PM 3.14 37.652 0.204 7.35 2.54 13.78
12/8/2020 3:45:00 PM 8.074 2.214
12/8/2020 4:00:00 PM 8.0857 2.2782
12/8/2020 4:00:00 PM 3.12 37.616 0.204 7.35 2.52 13.77
12/8/2020 4:15:00 PM 3.09 37.562 0.204 7.35 2.43 13.77
12/8/2020 4:15:00 PM 8.0987 1.871
12/8/2020 4:30:00 PM 8.1136 1.7247
12/8/2020 4:30:00 PM 3.07 37.526 0.204 7.35 2.62 13.74
12/8/2020 4:45:00 PM 3.04 37.472 0.204 7.36 2.52 13.71
12/8/2020 4:45:00 PM 8.1255 1.9761
12/8/2020 5:00:00 PM 8.1355 1.797
12/8/2020 5:00:00 PM 3 37.4 0.204 7.36 2.35 13.72
12/8/2020 5:15:00 PM 2.96 37.328 0.204 7.35 2.2 13.69
12/8/2020 5:15:00 PM 8.1454 1.4436
12/8/2020 5:30:00 PM 8.1464 1.2808
12/8/2020 5:30:00 PM 2.93 37.274 0.204 7.35 2.49 13.69
12/8/2020 5:45:00 PM 2.89 37.202 0.205 7.34 2.45 13.64
12/8/2020 5:45:00 PM 8.1466 1.3
12/8/2020 6:00:00 PM
12/8/2020 6:00:00 PM 2.85 37.13 0.205 7.34 2.48 13.65
12/8/2020 6:15:00 PM 2.82 37.076 0.205 7.33 2.85 13.63
12/8/2020 6:15:00 PM
12/8/2020 6:30:00 PM
12/8/2020 6:30:00 PM 2.79 37.022 0.205 7.34 2.49 13.61
12/8/2020 6:45:00 PM 2.76 36.968 0.205 7.34 2.12 13.58
12/8/2020 6:45:00 PM
12/8/2020 7:00:00 PM
12/8/2020 7:00:00 PM 2.75 36.95 0.205 7.33 2.89 13.55
12/8/2020 7:15:00 PM 2.72 36.896 0.205 7.32 2.8 13.54
12/8/2020 7:15:00 PM
12/8/2020 7:30:00 PM
12/8/2020 7:30:00 PM 2.71 36.878 0.205 7.31 2.5 13.53
12/8/2020 7:45:00 PM 2.69 36.842 0.205 7.32 2.84 13.52
12/8/2020 7:45:00 PM
12/8/2020 8:00:00 PM
12/8/2020 8:00:00 PM 2.67 36.806 0.205 7.33 2.57 13.5
12/8/2020 8:15:00 PM 2.66 36.788 0.205 7.32 2.87 13.5
12/8/2020 8:15:00 PM
12/8/2020 8:30:00 PM
12/8/2020 8:30:00 PM 2.65 36.77 0.205 7.32 2.75 13.49
12/8/2020 8:45:00 PM 2.64 36.752 0.205 7.31 2.86 13.45
12/8/2020 8:45:00 PM
12/8/2020 9:00:00 PM 8.1074 1.1248
12/8/2020 9:00:00 PM 2.64 36.752 0.205 7.3 2.85 13.46
12/8/2020 9:15:00 PM 2.62 36.716 0.205 7.3 2.41 13.46
12/8/2020 9:15:00 PM 8.1008 1.1339
12/8/2020 9:30:00 PM 8.0936 1.1431
12/8/2020 9:30:00 PM 2.61 36.698 0.205 7.3 2.46 13.46
12/8/2020 9:45:00 PM 2.6 36.68 0.205 7.3 2.98 13.46
12/8/2020 9:45:00 PM 8.0938 1.2014
12/8/2020 10:00:00 PM 8.0972 1.2288
12/8/2020 10:00:00 PM 2.59 36.662 0.205 7.3 2.82 13.42
12/8/2020 10:15:00 PM 2.58 36.644 0.205 7.29 2.76 13.42
12/8/2020 10:15:00 PM 8.1005 1.1905
12/8/2020 10:30:00 PM 8.0972 1.1888
12/8/2020 10:30:00 PM 2.56 36.608 0.206 7.3 2.85 13.42
12/8/2020 10:45:00 PM 2.56 36.608 0.206 7.29 2.74 13.42
12/8/2020 10:45:00 PM 8.0888 1.2026
12/8/2020 11:00:00 PM 8.0767 1.2006
12/8/2020 11:00:00 PM 2.55 36.59 0.206 7.29 2.7 13.42
12/8/2020 11:15:00 PM 2.53 36.554 0.206 7.29 2.84 13.42
12/8/2020 11:15:00 PM 8.0671 1.2127
12/8/2020 11:30:00 PM 8.0617 1.2115
12/8/2020 11:30:00 PM 2.51 36.518 0.206 7.29 3.08 13.4
12/8/2020 11:45:00 PM 2.49 36.482 0.206 7.3 2.46 13.41
12/8/2020 11:45:00 PM 8.0626 1.1999
12/9/2020 12:00:00 AM 8.0622 1.1988
12/9/2020 12:00:00 AM 2.47 36.446 0.206 7.29 2.98 13.39
12/9/2020 12:15:00 AM 2.45 36.41 0.206 7.29 3.13 13.38
12/9/2020 12:15:00 AM 8.0597 1.1906
12/9/2020 12:30:00 AM 8.0511 1.1885
12/9/2020 12:30:00 AM 2.43 36.374 0.206 7.3 2.79 13.39
12/9/2020 12:45:00 AM 2.41 36.338 0.206 7.29 3.11 13.38
12/9/2020 12:45:00 AM 8.0412 1.1564
12/9/2020 1:00:00 AM 8.0371 1.2218
12/9/2020 1:00:00 AM 2.39 36.302 0.206 7.28 3.21 13.35
12/9/2020 1:15:00 AM 2.37 36.266 0.206 7.28 2.73 13.36
12/9/2020 1:15:00 AM 8.032 1.4728
12/9/2020 1:30:00 AM 8.0212 1.456
12/9/2020 1:30:00 AM 2.36 36.248 0.206 7.27 3.5 13.37
12/9/2020 1:45:00 AM 2.35 36.23 0.206 7.28 3.47 13.37
12/9/2020 1:45:00 AM 8.009 1.3405
12/9/2020 2:00:00 AM 8.0045 1.2443
12/9/2020 2:00:00 AM 2.34 36.212 0.206 7.28 2.97 13.37
12/9/2020 2:15:00 AM 2.32 36.176 0.206 7.27 2.76 13.34
12/9/2020 2:15:00 AM 7.997 1.2376
12/9/2020 2:30:00 AM 7.9911 1.2062
12/9/2020 2:30:00 AM 2.31 36.158 0.206 7.28 2.96 13.34
12/9/2020 2:45:00 AM 2.29 36.122 0.206 7.27 3.04 13.34
12/9/2020 2:45:00 AM 7.9856 1.2001
12/9/2020 3:00:00 AM 7.9891 1.1932
12/9/2020 3:00:00 AM 2.27 36.086 0.206 7.28 2.83 13.31
12/9/2020 3:15:00 AM 2.26 36.068 0.206 7.27 3.18 13.33
12/9/2020 3:15:00 AM 7.9906 1.2442
12/9/2020 3:30:00 AM 7.987 1.1812
12/9/2020 3:30:00 AM 2.24 36.032 0.206 7.26 2.97 13.32
12/9/2020 3:45:00 AM 2.23 36.014 0.206 7.25 2.89 13.31
12/9/2020 3:45:00 AM 7.9824 1.3235
12/9/2020 4:00:00 AM 7.9734 1.3176
12/9/2020 4:00:00 AM 2.21 35.978 0.206 7.25 2.93 13.31
12/9/2020 4:15:00 AM 2.19 35.942 0.206 7.25 3.15 13.31
12/9/2020 4:15:00 AM 7.9675 1.2376
12/9/2020 4:30:00 AM 7.7553 1.2343
12/9/2020 4:30:00 AM 2.18 35.924 0.206 7.26 2.8 13.31
12/9/2020 4:45:00 AM 2.17 35.906 0.206 7.26 3.03 13.3
12/9/2020 4:45:00 AM 7.6066 1.2406
12/9/2020 5:00:00 AM 7.828 1.2532
12/9/2020 5:00:00 AM 2.15 35.87 0.206 7.26 2.65 13.28
12/9/2020 5:15:00 AM 2.15 35.87 0.206 7.26 2.79 13.28
12/9/2020 5:15:00 AM 7.8674 1.2052
12/9/2020 5:30:00 AM 7.8855 1.2045
12/9/2020 5:30:00 AM 2.14 35.852 0.206 7.26 3.01 13.27
12/9/2020 5:45:00 AM 2.14 35.852 0.206 7.25 2.58 13.29
12/9/2020 5:45:00 AM 7.8848 1.1
12/9/2020 6:00:00 AM 7.9009 1.2679
12/9/2020 6:00:00 AM 2.13 35.834 0.206 7.24 2.99 13.28
12/9/2020 6:15:00 AM 2.13 35.834 0.206 7.24 3.11 13.27
12/9/2020 6:15:00 AM 7.9054 1.2532
12/9/2020 6:30:00 AM 7.9032 1.249
12/9/2020 6:30:00 AM 2.12 35.816 0.206 7.24 3.14 13.25
12/9/2020 6:45:00 AM 2.11 35.798 0.206 7.24 2.99 13.27
12/9/2020 6:45:00 AM 7.9052 1.2659
12/9/2020 7:00:00 AM 7.9031 1.2573
12/9/2020 7:00:00 AM 2.1 35.78 0.206 7.23 2.41 13.23
12/9/2020 7:15:00 AM 2.09 35.762 0.206 7.24 3.02 13.25
12/9/2020 7:15:00 AM 7.9038 1.2628
12/9/2020 7:30:00 AM 7.9031 1.251
12/9/2020 7:30:00 AM 2.09 35.762 0.206 7.24 2.66 13.25
12/9/2020 7:45:00 AM 2.08 35.744 0.206 7.23 3.35 13.25
12/9/2020 7:45:00 AM 7.9003 1.2379
12/9/2020 8:00:00 AM 7.8964 1.228
12/9/2020 8:00:00 AM 2.08 35.744 0.206 7.25 2.87 13.25
12/9/2020 8:15:00 AM 2.08 35.744 0.206 7.24 2.62 13.25
12/9/2020 8:15:00 AM 7.8935 1.2314
12/9/2020 8:30:00 AM 7.8926 1.2651
12/9/2020 8:30:00 AM 2.08 35.744 0.206 7.24 2.81 13.26
12/9/2020 8:45:00 AM 2.08 35.744 0.207 7.23 3.06 13.26
12/9/2020 8:45:00 AM 7.8948 1.2143
12/9/2020 9:00:00 AM 7.8961 1.1762
12/9/2020 9:00:00 AM 2.09 35.762 0.207 7.23 3.24 13.28
12/9/2020 9:15:00 AM 2.09 35.762 0.207 7.23 2.84 13.28
12/9/2020 9:15:00 AM 7.8953 1.1907
12/9/2020 9:30:00 AM 7.8942 1.3779
12/9/2020 9:30:00 AM 2.09 35.762 0.207 7.23 2.64 13.28
12/9/2020 9:45:00 AM 2.09 35.762 0.207 7.23 2.81 13.31
12/9/2020 9:45:00 AM 7.8952 1.2101
12/9/2020 10:00:00 AM 7.9036 1.1944
12/9/2020 10:00:00 AM 2.09 35.762 0.207 7.23 2.68 13.31
12/9/2020 10:15:00 AM 2.05 35.69 0.207 7.24 2.61 13.32
12/9/2020 10:15:00 AM 7.9028 1.1649
12/9/2020 10:30:00 AM 7.9057 1.2073
12/9/2020 10:30:00 AM 2.07 35.726 0.207 7.23 2.97 13.35
12/9/2020 10:45:00 AM 2.08 35.744 0.207 7.23 3.03 13.39
12/9/2020 10:45:00 AM 7.9088 1.193
12/9/2020 11:00:00 AM 7.9091 1.1791
12/9/2020 11:00:00 AM 2.09 35.762 0.207 7.24 2.77 13.41
12/9/2020 11:15:00 AM 2.1 35.78 0.207 7.24 2.6 13.44
12/9/2020 11:15:00 AM 7.9064 1.2447
12/9/2020 11:30:00 AM 7.9042 1.2352
12/9/2020 11:30:00 AM 2.12 35.816 0.207 7.25 2.47 13.47
12/9/2020 11:45:00 AM 2.15 35.87 0.207 7.25 2.61 13.49
12/9/2020 11:45:00 AM 7.8974 1.2002
12/9/2020 12:00:00 PM 7.8975 1.244
12/9/2020 12:00:00 PM 2.17 35.906 0.207 7.24 2.69 13.51
12/9/2020 12:15:00 PM 2.19 35.942 0.207 7.24 2.67 13.56
12/9/2020 12:15:00 PM 7.9069 1.2477
12/9/2020 12:30:00 PM 7.9166 1.1606
12/9/2020 12:30:00 PM 2.21 35.978 0.207 7.25 2.82 13.58
12/9/2020 12:45:00 PM 2.24 36.032 0.207 7.26 2.46 13.6
12/9/2020 12:45:00 PM 7.923 1.1416
12/9/2020 1:00:00 PM 7.928 1.1285
12/9/2020 1:00:00 PM 2.28 36.104 0.207 7.26 2.78 13.64
12/9/2020 1:15:00 PM 2.32 36.176 0.207 7.26 2.87 13.68
12/9/2020 1:15:00 PM 7.9367 1.1295
12/9/2020 1:30:00 PM 7.9457 1.1229
12/9/2020 1:30:00 PM 2.37 36.266 0.207 7.27 2.42 13.71
12/9/2020 1:45:00 PM 2.41 36.338 0.207 7.28 2.74 13.73
12/9/2020 1:45:00 PM 7.9553 1.1386
12/9/2020 2:00:00 PM 7.9607 1.1435
12/9/2020 2:00:00 PM 2.44 36.392 0.207 7.28 2.56 13.76
12/9/2020 2:15:00 PM 2.46 36.428 0.207 7.29 2.71 13.77
12/9/2020 2:15:00 PM 7.9646 1.1589
12/9/2020 2:30:00 PM 7.9725 1.1363
12/9/2020 2:30:00 PM 2.49 36.482 0.207 7.3 2.67 13.81
12/9/2020 2:45:00 PM 2.52 36.536 0.207 7.29 3.21 13.82
12/9/2020 2:45:00 PM 7.9824 1.1418
12/9/2020 3:00:00 PM 7.9886 1.161
12/9/2020 3:00:00 PM 2.54 36.572 0.207 7.3 2.67 13.81
12/9/2020 3:15:00 PM 2.55 36.59 0.207 7.3 2.75 13.84
12/9/2020 3:15:00 PM 7.992 1.1622
12/9/2020 3:30:00 PM 7.9981 1.1591
12/9/2020 3:30:00 PM 2.56 36.608 0.207 7.31 2.43 13.84
12/9/2020 3:45:00 PM 2.58 36.644 0.207 7.31 2.63 13.86
12/9/2020 3:45:00 PM 8.0052 1.1666
12/9/2020 4:00:00 PM 8.009 1.1688
12/9/2020 4:00:00 PM 2.59 36.662 0.207 7.32 2.51 13.85
12/9/2020 4:15:00 PM 2.59 36.662 0.207 7.32 2.46 13.81
12/9/2020 4:15:00 PM 8.0137 1.1633
12/9/2020 4:30:00 PM 8.0175 1.1592
12/9/2020 4:30:00 PM 2.58 36.644 0.207 7.32 2.45 13.83
12/9/2020 4:45:00 PM 2.58 36.644 0.207 7.32 2.21 13.79
12/9/2020 4:45:00 PM 8.0243 1.1314
12/9/2020 5:00:00 PM 8.0232 1.1115
12/9/2020 5:00:00 PM 2.59 36.662 0.207 7.32 2.52 13.77
12/9/2020 5:15:00 PM 2.58 36.644 0.207 7.32 2.58 13.75
12/9/2020 5:15:00 PM 8.0195 1.1059
12/9/2020 5:30:00 PM 8.0204 1.2899
12/9/2020 5:30:00 PM 2.58 36.644 0.207 7.31 2.37 13.73
12/9/2020 5:45:00 PM 2.58 36.644 0.207 7.31 2.62 13.69
12/9/2020 5:45:00 PM 8.0178 1.4999
12/9/2020 6:00:00 PM
12/9/2020 6:00:00 PM 2.57 36.626 0.208 7.32 2.31 13.67
12/9/2020 6:15:00 PM 2.58 36.644 0.208 7.32 2.5 13.64
12/9/2020 6:15:00 PM
12/9/2020 6:30:00 PM
12/9/2020 6:30:00 PM 2.57 36.626 0.208 7.32 2.86 13.63
12/9/2020 6:45:00 PM 2.57 36.626 0.208 7.31 2.48 13.62
12/9/2020 6:45:00 PM
12/9/2020 7:00:00 PM
12/9/2020 7:00:00 PM 2.57 36.626 0.208 7.29 2.19 13.57
12/9/2020 7:15:00 PM 2.57 36.626 0.208 7.29 2.52 13.56
12/9/2020 7:15:00 PM
12/9/2020 7:30:00 PM
12/9/2020 7:30:00 PM 2.57 36.626 0.208 7.28 2.51 13.52
12/9/2020 7:45:00 PM 2.58 36.644 0.208 7.29 2.38 13.51
12/9/2020 7:45:00 PM
12/9/2020 8:00:00 PM
12/9/2020 8:00:00 PM 2.57 36.626 0.208 7.29 2.51 13.49
12/9/2020 8:15:00 PM 2.58 36.644 0.208 7.29 2.51 13.48
12/9/2020 8:15:00 PM
12/9/2020 8:30:00 PM
12/9/2020 8:30:00 PM 2.58 36.644 0.208 7.28 2.32 13.45
12/9/2020 8:45:00 PM 2.59 36.662 0.208 7.28 2.68 13.44
12/9/2020 8:45:00 PM
12/9/2020 9:00:00 PM 7.9625 1.226
12/9/2020 9:00:00 PM 2.61 36.698 0.208 7.29 2.69 13.44
12/9/2020 9:15:00 PM 2.61 36.698 0.208 7.29 2.59 13.43
12/9/2020 9:15:00 PM 7.9566 1.1349
12/9/2020 9:30:00 PM 7.9472 1.1309
12/9/2020 9:30:00 PM 2.61 36.698 0.209 7.28 2.68 13.44
12/9/2020 9:45:00 PM 2.61 36.698 0.209 7.27 2.64 13.43
12/9/2020 9:45:00 PM 7.9364 1.1721
12/9/2020 10:00:00 PM 7.9179 1.2173
12/9/2020 10:00:00 PM 2.62 36.716 0.209 7.28 2.37 13.43
12/9/2020 10:15:00 PM 2.63 36.734 0.209 7.26 2.54 13.43
12/9/2020 10:15:00 PM 7.9147 1.1375
12/9/2020 10:30:00 PM 7.9089 1.132
12/9/2020 10:30:00 PM 2.64 36.752 0.209 7.27 2.59 13.4
12/9/2020 10:45:00 PM 2.64 36.752 0.209 7.27 2.58 13.4
12/9/2020 10:45:00 PM 7.9003 1.1499
12/9/2020 11:00:00 PM 7.8897 1.14
12/9/2020 11:00:00 PM 2.64 36.752 0.209 7.27 2.87 13.4
12/9/2020 11:15:00 PM 2.66 36.788 0.209 7.27 2.51 13.38
12/9/2020 11:15:00 PM 7.8843 1.1449
12/9/2020 11:30:00 PM 7.8742 1.1517
12/9/2020 11:30:00 PM 2.67 36.806 0.209 7.27 3.47 13.4
12/9/2020 11:45:00 PM 2.67 36.806 0.209 7.28 2.66 13.38
12/9/2020 11:45:00 PM 7.8722 1.1
12/10/2020 12:00:00 AM 7.8547 1.162
12/10/2020 12:00:00 AM 2.68 36.824 0.209 7.27 2.89 13.38
12/10/2020 12:15:00 AM 2.68 36.824 0.209 7.26 2.5 13.36
12/10/2020 12:15:00 AM 7.8459 1.1367
12/10/2020 12:30:00 AM 7.8383 1.1007
12/10/2020 12:30:00 AM 2.69 36.842 0.209 7.26 2.96 13.38
12/10/2020 12:45:00 AM 2.7 36.86 0.209 7.26 2.86 13.37
12/10/2020 12:45:00 AM 7.8289 1.0997
12/10/2020 1:00:00 AM 7.8214 1.1335
12/10/2020 1:00:00 AM 2.7 36.86 0.209 7.27 2.71 13.32
12/10/2020 1:15:00 AM 2.7 36.86 0.209 7.27 2.69 13.34
12/10/2020 1:15:00 AM 7.8152 1.1554
12/10/2020 1:30:00 AM 7.8059 1.123
12/10/2020 1:30:00 AM 2.71 36.878 0.209 7.27 3 13.33
12/10/2020 1:45:00 AM 2.72 36.896 0.209 7.27 3.94 13.3
12/10/2020 1:45:00 AM 7.799 1.1458
12/10/2020 2:00:00 AM 7.7917 1.151
12/10/2020 2:00:00 AM 2.74 36.932 0.209 7.26 2.97 13.27
12/10/2020 2:15:00 AM 2.74 36.932 0.209 7.26 2.81 13.28
12/10/2020 2:15:00 AM 7.7891 1.1467
12/10/2020 2:30:00 AM 7.7816 1.1538
12/10/2020 2:30:00 AM 2.75 36.95 0.21 7.26 2.85 13.26
12/10/2020 2:45:00 AM 2.75 36.95 0.21 7.26 3.1 13.24
12/10/2020 2:45:00 AM 7.7742 1.1001
12/10/2020 3:00:00 AM 7.7808 1.1401
12/10/2020 3:00:00 AM 2.75 36.95 0.21 7.26 2.74 13.25
12/10/2020 3:15:00 AM 2.75 36.95 0.21 7.25 2.8 13.25
12/10/2020 3:15:00 AM 7.7776 1.1663
12/10/2020 3:30:00 AM 7.7731 1.1372
12/10/2020 3:30:00 AM 2.75 36.95 0.21 7.26 2.71 13.22
12/10/2020 3:45:00 AM 2.76 36.968 0.21 7.25 2.73 13.22
12/10/2020 3:45:00 AM 7.7682 1.1314
12/10/2020 4:00:00 AM 7.7618 1.1445
12/10/2020 4:00:00 AM 2.75 36.95 0.21 7.24 3.36 13.23
12/10/2020 4:15:00 AM 2.74 36.932 0.21 7.25 2.94 13.16
12/10/2020 4:15:00 AM 7.762 1.161
12/10/2020 4:30:00 AM 7.7588 1.156
12/10/2020 4:30:00 AM 2.73 36.914 0.21 7.25 3 13.2
12/10/2020 4:45:00 AM 2.71 36.878 0.21 7.25 2.72 13.2
12/10/2020 4:45:00 AM 7.7561 1.1575
12/10/2020 5:00:00 AM 7.7594 1.1671
12/10/2020 5:00:00 AM 2.71 36.878 0.21 7.25 2.88 13.19
12/10/2020 5:15:00 AM 2.68 36.824 0.21 7.25 2.94 13.18
12/10/2020 5:15:00 AM 7.7579 1.1541
12/10/2020 5:30:00 AM 7.7517 1.1495
12/10/2020 5:30:00 AM 2.68 36.824 0.202 7.24 2.82 13.18
12/10/2020 5:45:00 AM 2.67 36.806 0.21 7.24 2.81 13.15
12/10/2020 5:45:00 AM 7.7448 1.1003
12/10/2020 6:00:00 AM 7.5048 1.1532
12/10/2020 6:00:00 AM 2.67 36.806 0.21 7.24 2.89 13.14
12/10/2020 6:15:00 AM 2.65 36.77 0.196 7.23 3.13 13.14
12/10/2020 6:15:00 AM 7.66 1.1524
12/10/2020 6:30:00 AM 7.6983 1.1206
12/10/2020 6:30:00 AM 2.64 36.752 0.197 7.24 2.76 13.14
12/10/2020 6:45:00 AM 2.63 36.734 0.21 7.24 2.69 13.12
12/10/2020 6:45:00 AM 7.7086 1.1147
12/10/2020 7:00:00 AM 7.7136 1.0988
12/10/2020 7:00:00 AM 2.63 36.734 0.21 7.24 2.59 13.12
12/10/2020 7:15:00 AM 2.63 36.734 0.211 7.23 2.79 13.08
12/10/2020 7:15:00 AM 7.7201 1.1506
12/10/2020 7:30:00 AM 7.7204 1.1534
12/10/2020 7:30:00 AM 2.64 36.752 0.211 7.24 2.67 13.11
12/10/2020 7:45:00 AM 2.66 36.788 0.211 7.23 3.09 13.1
12/10/2020 7:45:00 AM 7.7238 1.1352
12/10/2020 8:00:00 AM 7.7214 1.1289
12/10/2020 8:00:00 AM 2.66 36.788 0.211 7.24 2.89 13.09
12/10/2020 8:15:00 AM 2.69 36.842 0.211 7.23 3 13.12
12/10/2020 8:15:00 AM 7.7287 1.1363
12/10/2020 8:30:00 AM 7.7345 1.1341
12/10/2020 8:30:00 AM 2.7 36.86 0.211 7.23 2.53 13.13
12/10/2020 8:45:00 AM 2.75 36.95 0.211 7.23 3.1 13.14
12/10/2020 8:45:00 AM 7.7378 1.1999
12/10/2020 9:00:00 AM 7.7483 1.1626
12/10/2020 9:00:00 AM 2.77 36.986 0.211 7.22 2.91 13.18
12/10/2020 9:15:00 AM 2.79 37.022 0.211 7.24 2.51 13.22
12/10/2020 9:15:00 AM 7.7385 1.1689
12/10/2020 9:30:00 AM 7.7403 1.1632
12/10/2020 9:30:00 AM 2.81 37.058 0.211 7.24 2.65 13.22
12/10/2020 9:45:00 AM 2.92 37.256 0.211 7.24 2.72 13.25
12/10/2020 9:45:00 AM 7.7433 1.1666
12/10/2020 10:00:00 AM 7.7527 1.2336
12/10/2020 10:00:00 AM 2.92 37.256 0.211 7.25 2.82 13.3
12/10/2020 10:15:00 AM 2.98 37.364 0.211 7.25 2.75 13.33
12/10/2020 10:15:00 AM 7.7568 1.2294
12/10/2020 10:30:00 AM 7.7617 1.2328
12/10/2020 10:30:00 AM 3.02 37.436 0.211 7.25 2.7 13.36
12/10/2020 10:45:00 AM 3.1 37.58 0.211 7.27 2.3 13.37
12/10/2020 10:45:00 AM 7.7597 1.2369
12/10/2020 11:00:00 AM 7.7564 1.2526
12/10/2020 11:00:00 AM 3.13 37.634 0.211 7.25 2.72 13.43
12/10/2020 11:15:00 AM 3.19 37.742 0.211 7.26 2.9 13.48
12/10/2020 11:15:00 AM 7.7581 1.2571
12/10/2020 11:30:00 AM 7.7599 1.2486
12/10/2020 11:30:00 AM 3.28 37.904 0.211 7.26 3 13.5
12/10/2020 11:45:00 AM 3.38 38.084 0.211 7.27 2.35 13.53
12/10/2020 11:45:00 AM 7.7658 1.2001
12/10/2020 12:00:00 PM 7.7716 1.2056
12/10/2020 12:00:00 PM 3.51 38.318 0.211 7.27 2.75 13.56
12/10/2020 12:15:00 PM 3.52 38.336 0.211 7.3 2.71 13.59
12/10/2020 12:15:00 PM 7.7795 1.1988
12/10/2020 12:30:00 PM 7.7898 1.1976
12/10/2020 12:30:00 PM 3.63 38.534 0.211 7.3 2.79 13.62
12/10/2020 12:45:00 PM 3.71 38.678 0.211 7.32 2.52 13.64
12/10/2020 12:45:00 PM 7.7998 1.2422
12/10/2020 1:00:00 PM 7.8097 1.2497
12/10/2020 1:00:00 PM 3.77 38.786 0.211 7.31 2.55 13.66
12/10/2020 1:15:00 PM 3.86 38.948 0.212 7.31 2.47 13.68
12/10/2020 1:15:00 PM 7.8205 1.2273
12/10/2020 1:30:00 PM 7.8282 1.1804
12/10/2020 1:30:00 PM 3.93 39.074 0.212 7.32 2.39 13.68
12/10/2020 1:45:00 PM 3.95 39.11 0.212 7.32 2.39 13.7
12/10/2020 1:45:00 PM 7.8353 1.1889
12/10/2020 2:00:00 PM 7.8419 1.2202
12/10/2020 2:00:00 PM 3.99 39.182 0.212 7.34 2.64 13.71
12/10/2020 2:15:00 PM 4.02 39.236 0.212 7.33 2.45 13.71
12/10/2020 2:15:00 PM 7.853 1.2417
12/10/2020 2:30:00 PM 7.8673 1.3767
12/10/2020 2:30:00 PM 4.06 39.308 0.212 7.34 2.48 13.73
12/10/2020 2:45:00 PM 4.08 39.344 0.212 7.34 2.51 13.75
12/10/2020 2:45:00 PM 7.8803 1.4479
12/10/2020 3:00:00 PM 7.8899 1.4343
12/10/2020 3:00:00 PM 4.12 39.416 0.212 7.36 2.77 13.73
12/10/2020 3:15:00 PM 4.16 39.488 0.212 7.36 3.04 13.74
12/10/2020 3:15:00 PM 7.8988 1.5313
12/10/2020 3:30:00 PM 7.9071 1.6466
12/10/2020 3:30:00 PM 4.18 39.524 0.212 7.37 2.82 13.73
12/10/2020 3:45:00 PM 4.17 39.506 0.212 7.37 2.82 13.73
12/10/2020 3:45:00 PM 7.9164 1.9326
12/10/2020 4:00:00 PM 7.9262 1.8084
12/10/2020 4:00:00 PM 4.16 39.488 0.212 7.37 2.83 13.69
12/10/2020 4:15:00 PM 4.15 39.47 0.213 7.38 2.86 13.68
12/10/2020 4:15:00 PM 7.9335 1.8397
12/10/2020 4:30:00 PM 7.9369 1.483
12/10/2020 4:30:00 PM 4.13 39.434 0.213 7.38 2.91 13.66
12/10/2020 4:45:00 PM 4.09 39.362 0.213 7.37 2.95 13.64
12/10/2020 4:45:00 PM 7.9406 1.371
12/10/2020 5:00:00 PM 7.9389 1.3154
12/10/2020 5:00:00 PM 4.06 39.308 0.213 7.4 2.72 13.61
12/10/2020 5:15:00 PM 4 39.2 0.213 7.39 2.82 13.58
12/10/2020 5:15:00 PM 7.9385 1.2939
12/10/2020 5:30:00 PM 7.9348 1.1503
12/10/2020 5:30:00 PM 3.96 39.128 0.213 7.38 3.67 13.56
12/10/2020 5:45:00 PM 3.93 39.074 0.213 7.38 3.62 13.52
12/10/2020 5:45:00 PM 7.9352 1.1001
12/10/2020 6:00:00 PM 7.9414 1.1728
12/10/2020 6:00:00 PM 3.9 39.02 0.213 7.38 3.74 13.49
12/10/2020 6:15:00 PM 3.84 38.912 0.213 7.36 3.39 13.48
12/10/2020 6:15:00 PM 7.9448 1.1985
12/10/2020 6:30:00 PM 7.9503 1.1394
12/10/2020 6:30:00 PM 3.82 38.876 0.213 7.37 3.9 13.44
12/10/2020 6:45:00 PM 3.77 38.786 0.213 7.36 3.83 13.41
12/10/2020 6:45:00 PM 7.9489 1.1462
12/10/2020 7:00:00 PM 7.9493 1.1404
12/10/2020 7:00:00 PM 3.73 38.714 0.213 7.36 3.74 13.39
12/10/2020 7:15:00 PM 3.7 38.66 0.214 7.37 3.82 13.35
12/10/2020 7:15:00 PM 7.946 1.1366
12/10/2020 7:30:00 PM 7.9436 1.1595
12/10/2020 7:30:00 PM 3.68 38.624 0.214 7.36 3.91 13.33
12/10/2020 7:45:00 PM 3.65 38.57 0.214 7.35 3.81 13.31
12/10/2020 7:45:00 PM 7.9412 1.1448
12/10/2020 8:00:00 PM 7.9395 1.1306
12/10/2020 8:00:00 PM 3.63 38.534 0.214 7.35 4.52 13.29
12/10/2020 8:15:00 PM 3.6 38.48 0.214 7.35 4.02 13.27
12/10/2020 8:15:00 PM 7.9334 1.1366
12/10/2020 8:30:00 PM 7.9311 1.1277
12/10/2020 8:30:00 PM 3.59 38.462 0.214 7.34 3.55 13.24
12/10/2020 8:45:00 PM 3.55 38.39 0.214 7.33 4.27 13.22
12/10/2020 8:45:00 PM 7.9352 1.1
12/10/2020 9:00:00 PM 7.9257 1.1362
12/10/2020 9:00:00 PM 3.56 38.408 0.214 7.33 3.75 13.2
12/10/2020 9:15:00 PM 3.51 38.318 0.214 7.33 3.73 13.2
12/10/2020 9:15:00 PM 7.9205 1.1499
12/10/2020 9:30:00 PM 7.9139 1.1613
12/10/2020 9:30:00 PM 3.52 38.336 0.214 7.33 5.49 13.18
12/10/2020 9:45:00 PM 3.49 38.282 0.214 7.33 5.02 13.2
12/10/2020 9:45:00 PM 7.9049 1.1563
12/10/2020 10:00:00 PM 7.8841 1.2004
12/10/2020 10:00:00 PM 3.46 38.228 0.214 7.34 4.15 13.21
12/10/2020 10:15:00 PM 3.45 38.21 0.214 7.32 4.44 13.18
12/10/2020 10:15:00 PM 7.8719 1.2431
12/10/2020 10:30:00 PM 7.8858 1.3102
12/10/2020 10:30:00 PM 3.43 38.174 0.214 7.32 4.56 13.18
12/10/2020 10:45:00 PM 3.41 38.138 0.214 7.31 4.61 13.17
12/10/2020 10:45:00 PM 7.8816 1.3352
12/10/2020 11:00:00 PM 7.8756 1.3191
12/10/2020 11:00:00 PM 3.4 38.12 0.214 7.31 4.64 13.18
12/10/2020 11:15:00 PM 3.37 38.066 0.213 7.31 5.12 13.16
12/10/2020 11:15:00 PM 7.8776 1.167
12/10/2020 11:30:00 PM 7.8653 1.271
12/10/2020 11:30:00 PM 3.35 38.03 0.213 7.32 4.78 13.17
12/10/2020 11:45:00 PM 3.32 37.976 0.213 7.31 4.5 13.18
12/10/2020 11:45:00 PM 7.8638 1.5
12/11/2020 12:00:00 AM 7.8448 1.1971
12/11/2020 12:00:00 AM 3.3 37.94 0.213 7.33 4.85 13.16
12/11/2020 12:15:00 AM 3.28 37.904 0.213 7.32 4.62 13.16
12/11/2020 12:15:00 AM 7.8383 1.2129
12/11/2020 12:30:00 AM 7.8314 1.2495
12/11/2020 12:30:00 AM 3.26 37.868 0.213 7.31 5.01 13.14
12/11/2020 12:45:00 AM 3.23 37.814 0.214 7.31 6.91 13.13
12/11/2020 12:45:00 AM 7.8206 1.2172
12/11/2020 1:00:00 AM 7.814 1.2387
12/11/2020 1:00:00 AM 3.21 37.778 0.214 7.3 4.96 13.13
12/11/2020 1:15:00 AM 3.17 37.706 0.214 7.3 5.07 13.14
12/11/2020 1:15:00 AM 7.8038 1.1598
12/11/2020 1:30:00 AM 7.8036 1.1362
12/11/2020 1:30:00 AM 3.15 37.67 0.214 7.3 6.05 13.12
12/11/2020 1:45:00 AM 3.13 37.634 0.214 7.3 5.09 13.11
12/11/2020 1:45:00 AM 7.7982 1.1331
12/11/2020 2:00:00 AM 7.7919 1.1496
12/11/2020 2:00:00 AM 3.11 37.598 0.214 7.3 5.15 13.09
12/11/2020 2:15:00 AM 3.08 37.544 0.214 7.3 5.52 13.11
12/11/2020 2:15:00 AM 7.7857 1.1381
12/11/2020 2:30:00 AM 7.7768 1.1333
12/11/2020 2:30:00 AM 3.06 37.508 0.214 7.3 5.84 13.07
12/11/2020 2:45:00 AM 3.04 37.472 0.214 7.3 5.09 13.06
12/11/2020 2:45:00 AM 7.77 1.1007
12/11/2020 3:00:00 AM 7.7653 1.1572
12/11/2020 3:00:00 AM 3.02 37.436 0.214 7.29 5.35 13.06
12/11/2020 3:15:00 AM 3 37.4 0.214 7.29 5.48 13.03
12/11/2020 3:15:00 AM 7.7603 1.1506
12/11/2020 3:30:00 AM 7.7554 1.1495
12/11/2020 3:30:00 AM 2.98 37.364 0.214 7.28 5.02 13.05
12/11/2020 3:45:00 AM 2.94 37.292 0.214 7.29 5.12 13.04
12/11/2020 3:45:00 AM 7.7531 1.1588
12/11/2020 4:00:00 AM 7.7504 1.1618
12/11/2020 4:00:00 AM 2.92 37.256 0.214 7.28 5.08 13.03
12/11/2020 4:15:00 AM 2.9 37.22 0.214 7.29 5.3 13.03
12/11/2020 4:15:00 AM 7.7448 1.1596
12/11/2020 4:30:00 AM 7.7433 1.1656
12/11/2020 4:30:00 AM 2.88 37.184 0.214 7.29 6.99 13.03
12/11/2020 4:45:00 AM 2.86 37.148 0.214 7.29 5.1 13.04
12/11/2020 4:45:00 AM 7.7433 1.1252
12/11/2020 5:00:00 AM 7.7409 1.1451
12/11/2020 5:00:00 AM 2.83 37.094 0.214 7.28 5.91 13.02
12/11/2020 5:15:00 AM 2.81 37.058 0.214 7.28 5.52 13.01
12/11/2020 5:15:00 AM 7.7328 1.1332
12/11/2020 5:30:00 AM 7.7319 1.1387
12/11/2020 5:30:00 AM 2.79 37.022 0.214 7.28 5.57 13.03
12/11/2020 5:45:00 AM 2.77 36.986 0.214 7.27 5.37 13.02
12/11/2020 5:45:00 AM 7.735 1.1
12/11/2020 6:00:00 AM
12/11/2020 6:00:00 AM 2.74 36.932 0.214 7.27 5.52 13.01
12/11/2020 6:15:00 AM 2.72 36.896 0.214 7.26 5.12 12.99
12/11/2020 6:15:00 AM
12/11/2020 6:30:00 AM
12/11/2020 6:30:00 AM 2.69 36.842 0.214 7.27 5.09 12.99
12/11/2020 6:45:00 AM 2.67 36.806 0.214 7.26 5.39 12.99
12/11/2020 6:45:00 AM
12/11/2020 7:00:00 AM
12/11/2020 7:00:00 AM 2.64 36.752 0.214 7.26 5.01 12.99
12/11/2020 7:15:00 AM 2.62 36.716 0.214 7.26 5.35 13
12/11/2020 7:15:00 AM
12/11/2020 7:30:00 AM
12/11/2020 7:30:00 AM 2.59 36.662 0.214 7.25 4.82 13
12/11/2020 7:45:00 AM 2.58 36.644 0.215 7.26 5.01 12.99
12/11/2020 7:45:00 AM
12/11/2020 8:00:00 AM
12/11/2020 8:00:00 AM 2.56 36.608 0.215 7.26 4.94 13.01
12/11/2020 8:15:00 AM 2.55 36.59 0.215 7.26 5.13 13.04
12/11/2020 8:15:00 AM
12/11/2020 8:30:00 AM
12/11/2020 8:30:00 AM 2.54 36.572 0.215 7.25 5.12 13.05
12/11/2020 8:45:00 AM 2.55 36.59 0.215 7.25 5.79 13.07
12/11/2020 8:45:00 AM
12/11/2020 9:00:00 AM
12/11/2020 9:00:00 AM 2.54 36.572 0.215 7.25 5.13 13.1
12/11/2020 9:15:00 AM 2.54 36.572 0.215 7.25 5.99 13.12
12/11/2020 9:15:00 AM
12/11/2020 9:30:00 AM
12/11/2020 9:30:00 AM 2.59 36.662 0.215 7.24 5.39 13.15
12/11/2020 9:45:00 AM 2.66 36.788 0.215 7.25 5.59 13.21
12/11/2020 9:45:00 AM
12/11/2020 10:00:00 AM
12/11/2020 10:00:00 AM 2.7 36.86 0.215 7.24 5.12 13.24
12/11/2020 10:15:00 AM 2.75 36.95 0.215 7.24 5.25 13.24
12/11/2020 10:15:00 AM
12/11/2020 10:30:00 AM
12/11/2020 10:30:00 AM 2.82 37.076 0.214 7.25 5.38 13.31
12/11/2020 10:45:00 AM 2.86 37.148 0.215 7.25 5.28 13.32
12/11/2020 10:45:00 AM
12/11/2020 11:00:00 AM
12/11/2020 11:00:00 AM 2.93 37.274 0.214 7.26 5.92 13.39
12/11/2020 11:15:00 AM 3.01 37.418 0.214 7.26 5.87 13.42
12/11/2020 11:15:00 AM
12/11/2020 11:30:00 AM
12/11/2020 11:30:00 AM 3.08 37.544 0.214 7.26 4.94 13.45
12/11/2020 11:45:00 AM 3.18 37.724 0.214 7.26 5.23 13.48
12/11/2020 11:45:00 AM
12/11/2020 12:00:00 PM 7.7433 1.1869
12/11/2020 12:00:00 PM 3.26 37.868 0.214 7.26 5.85 13.54
12/11/2020 12:15:00 PM 3.35 38.03 0.214 7.26 5.4 13.57
12/11/2020 12:15:00 PM 7.7477 1.1381
12/11/2020 12:30:00 PM 7.7571 1.1273
12/11/2020 12:30:00 PM 3.36 38.048 0.214 7.27 5.02 13.61
12/11/2020 12:45:00 PM 3.44 38.192 0.214 7.27 5.1 13.66
12/11/2020 12:45:00 PM 7.7654 1.1339
12/11/2020 1:00:00 PM 7.7708 1.1333
12/11/2020 1:00:00 PM 3.51 38.318 0.214 7.27 5.2 13.68
12/11/2020 1:15:00 PM 3.6 38.48 0.214 7.28 5.51 13.7
12/11/2020 1:15:00 PM 7.7681 1.1281
12/11/2020 1:30:00 PM 7.7712 1.1324
12/11/2020 1:30:00 PM 3.67 38.606 0.214 7.27 5.25 13.74
12/11/2020 1:45:00 PM 3.73 38.714 0.214 7.29 5.27 13.76
12/11/2020 1:45:00 PM 7.7842 1.1618
12/11/2020 2:00:00 PM 7.7943 1.1485
12/11/2020 2:00:00 PM 3.79 38.822 0.214 7.3 5.79 13.78
12/11/2020 2:15:00 PM 3.84 38.912 0.214 7.29 4.95 13.8
12/11/2020 2:15:00 PM 7.8038 1.1298
12/11/2020 2:30:00 PM 7.809 1.1273
12/11/2020 2:30:00 PM 3.89 39.002 0.214 7.31 5.34 13.81
12/11/2020 2:45:00 PM 3.95 39.11 0.213 7.32 5.78 13.82
12/11/2020 2:45:00 PM 7.8104 1.1272
12/11/2020 3:00:00 PM 7.8093 1.1505
12/11/2020 3:00:00 PM 4.01 39.218 0.213 7.34 5.52 13.82
12/11/2020 3:15:00 PM 4.04 39.272 0.213 7.34 5.81 13.83
12/11/2020 3:15:00 PM 7.813 1.1896
12/11/2020 3:30:00 PM 7.8237 1.3473
12/11/2020 3:30:00 PM 4.05 39.29 0.214 7.34 3.58 13.83
12/11/2020 3:45:00 PM 4.06 39.308 0.214 7.35 4.67 13.81
12/11/2020 3:45:00 PM 7.8318 1.2723
12/11/2020 4:00:00 PM 7.8373 1.2882
12/11/2020 4:00:00 PM 4.05 39.29 0.214 7.35 5.04 13.81
12/11/2020 4:15:00 PM 4.05 39.29 0.214 7.36 5.4 13.81
12/11/2020 4:15:00 PM 7.8413 1.1974
12/11/2020 4:30:00 PM 7.8608 1.2263
12/11/2020 4:30:00 PM 4.03 39.254 0.214 7.37 5.34 13.78
12/11/2020 4:45:00 PM 3.99 39.182 0.214 7.36 5.83 13.75
12/11/2020 4:45:00 PM 7.873 1.2812
12/11/2020 5:00:00 PM 7.8768 1.2863
12/11/2020 5:00:00 PM 3.97 39.146 0.214 7.37 5.32 13.7
12/11/2020 5:15:00 PM 3.94 39.092 0.214 7.37 5.5 13.7
12/11/2020 5:15:00 PM 7.8768 1.2426
12/11/2020 5:30:00 PM 7.8823 1.1478
12/11/2020 5:30:00 PM 3.91 39.038 0.214 7.38 5.83 13.68
12/11/2020 5:45:00 PM 3.87 38.966 0.214 7.38 6.28 13.65
12/11/2020 5:45:00 PM 7.8932 1.1
12/11/2020 6:00:00 PM 7.9084 1.1366
12/11/2020 6:00:00 PM 3.84 38.912 0.214 7.37 6.82 13.6
12/11/2020 6:15:00 PM 3.8 38.84 0.214 7.39 6.15 13.58
12/11/2020 6:15:00 PM 7.9152 1.1505
12/11/2020 6:30:00 PM 7.9171 1.1489
12/11/2020 6:30:00 PM 3.77 38.786 0.214 7.39 6.75 13.54
12/11/2020 6:45:00 PM 3.74 38.732 0.214 7.38 7.22 13.51
12/11/2020 6:45:00 PM 7.9196 1.1489
12/11/2020 7:00:00 PM 7.9232 1.1354
12/11/2020 7:00:00 PM 3.72 38.696 0.214 7.38 6.78 13.49
12/11/2020 7:15:00 PM 3.68 38.624 0.214 7.39 7.43 13.46
12/11/2020 7:15:00 PM 7.9271 1.1105
12/11/2020 7:30:00 PM 7.9286 1.0983
12/11/2020 7:30:00 PM 3.65 38.57 0.214 7.39 8.16 13.44
12/11/2020 7:45:00 PM 3.63 38.534 0.214 7.38 8.24 13.39
12/11/2020 7:45:00 PM 7.9271 1.1156
12/11/2020 8:00:00 PM 7.9246 1.0993
12/11/2020 8:00:00 PM 3.61 38.498 0.214 7.38 7.93 13.37
12/11/2020 8:15:00 PM 3.58 38.444 0.215 7.38 7.85 13.34
12/11/2020 8:15:00 PM 7.9197 1.0452
12/11/2020 8:30:00 PM 7.9166 1.0966
12/11/2020 8:30:00 PM 3.56 38.408 0.215 7.37 7.36 13.33
12/11/2020 8:45:00 PM 3.54 38.372 0.215 7.37 8.38 13.31
12/11/2020 8:45:00 PM 7.917 1.1
12/11/2020 9:00:00 PM 7.9129 1.1211
12/11/2020 9:00:00 PM 3.53 38.354 0.215 7.37 7.15 13.3
12/11/2020 9:15:00 PM 3.51 38.318 0.215 7.37 7.26 13.25
12/11/2020 9:15:00 PM 7.9077 1.1399
12/11/2020 9:30:00 PM 7.9008 1.1432
12/11/2020 9:30:00 PM 3.5 38.3 0.215 7.36 6.67 13.28
12/11/2020 9:45:00 PM 3.48 38.264 0.215 7.37 6.48 13.27
12/11/2020 9:45:00 PM 7.8927 1.3593
12/11/2020 10:00:00 PM 7.8814 1.2891
12/11/2020 10:00:00 PM 3.46 38.228 0.215 7.38 5.52 13.26
12/11/2020 10:15:00 PM 3.44 38.192 0.215 7.38 5.34 13.25
12/11/2020 10:15:00 PM 7.8785 1.1864
12/11/2020 10:30:00 PM 7.8691 1.135
12/11/2020 10:30:00 PM 3.43 38.174 0.215 7.37 5.21 13.24
12/11/2020 10:45:00 PM 3.41 38.138 0.215 7.37 5.45 13.23
12/11/2020 10:45:00 PM 7.8598 1.1393
12/11/2020 11:00:00 PM 7.852 1.1611
12/11/2020 11:00:00 PM 3.4 38.12 0.215 7.37 5.21 13.23
12/11/2020 11:15:00 PM 3.38 38.084 0.215 7.37 5.02 13.23
12/11/2020 11:15:00 PM 7.8413 1.3114
12/11/2020 11:30:00 PM 7.8327 1.3328
12/11/2020 11:30:00 PM 3.36 38.048 0.215 7.38 5.23 13.23
12/11/2020 11:45:00 PM 3.35 38.03 0.215 7.37 6.01 13.23
12/11/2020 11:45:00 PM 7.8274 1.3998
12/12/2020 12:00:00 AM 7.8165 1.2219
12/12/2020 12:00:00 AM 3.33 37.994 0.215 7.38 5.17 13.2
12/12/2020 12:15:00 AM 3.3 37.94 0.215 7.38 5.17 13.22
12/12/2020 12:15:00 AM 7.8057 1.1336
12/12/2020 12:30:00 AM 7.8136 1.1578
12/12/2020 12:30:00 AM 3.28 37.904 0.215 7.38 5.33 13.2
12/12/2020 12:45:00 AM 3.26 37.868 0.215 7.38 5.36 13.2
12/12/2020 12:45:00 AM 7.8013 1.1572
12/12/2020 1:00:00 AM 7.7872 1.1493
12/12/2020 1:00:00 AM 3.25 37.85 0.216 7.39 5.35 13.2
12/12/2020 1:15:00 AM 3.22 37.796 0.216 7.39 5.25 13.19
12/12/2020 1:15:00 AM 7.7734 1.1868
12/12/2020 1:30:00 AM 7.7653 1.1299
12/12/2020 1:30:00 AM 3.2 37.76 0.216 7.39 5.33 13.19
12/12/2020 1:45:00 AM 3.18 37.724 0.216 7.39 5.45 13.18
12/12/2020 1:45:00 AM 7.7585 1.1488
12/12/2020 2:00:00 AM 7.7532 1.1456
12/12/2020 2:00:00 AM 3.16 37.688 0.216 7.39 5.78 13.16
12/12/2020 2:15:00 AM 3.15 37.67 0.216 7.39 4.89 13.15
12/12/2020 2:15:00 AM 7.7475 1.144
12/12/2020 2:30:00 AM 7.7359 1.1316
12/12/2020 2:30:00 AM 3.13 37.634 0.216 7.38 5.15 13.15
12/12/2020 2:45:00 AM 3.12 37.616 0.216 7.38 5.32 13.12
12/12/2020 2:45:00 AM 7.7308 1.0002
12/12/2020 3:00:00 AM 7.7172 1.232
12/12/2020 3:00:00 AM 3.1 37.58 0.216 7.37 5.8 13.13
12/12/2020 3:15:00 AM 3.08 37.544 0.216 7.37 5.33 13.13
12/12/2020 3:15:00 AM 7.7087 1.1472
12/12/2020 3:30:00 AM 7.7007 1.1699
12/12/2020 3:30:00 AM 3.07 37.526 0.217 7.37 5.38 13.11
12/12/2020 3:45:00 AM 3.05 37.49 0.217 7.36 5.96 13.11
12/12/2020 3:45:00 AM 7.7075 1.1401
12/12/2020 4:00:00 AM 7.7113 1.1372
12/12/2020 4:00:00 AM 3.04 37.472 0.217 7.36 5.39 13.1
12/12/2020 4:15:00 AM 3.02 37.436 0.217 7.36 5.95 13.09
12/12/2020 4:15:00 AM 7.6943 1.1299
12/12/2020 4:30:00 AM 7.6762 1.1442
12/12/2020 4:30:00 AM 3 37.4 0.217 7.35 5.42 13.07
12/12/2020 4:45:00 AM 2.98 37.364 0.217 7.35 5.37 13.08
12/12/2020 4:45:00 AM 7.6702 1.1462
12/12/2020 5:00:00 AM 7.6675 1.1497
12/12/2020 5:00:00 AM 2.96 37.328 0.217 7.36 5.98 13.07
12/12/2020 5:15:00 AM 2.95 37.31 0.217 7.35 5.63 13.06
12/12/2020 5:15:00 AM 7.6603 1.1418
12/12/2020 5:30:00 AM 7.6589 1.1374
12/12/2020 5:30:00 AM 2.92 37.256 0.217 7.36 6.18 13.04
12/12/2020 5:45:00 AM 2.89 37.202 0.217 7.36 6.1 13.04
12/12/2020 5:45:00 AM 7.6552 1.1001
12/12/2020 6:00:00 AM 7.5401 1.1248
12/12/2020 6:00:00 AM 2.88 37.184 0.217 7.35 5.67 13.05
12/12/2020 6:15:00 AM 2.87 37.166 0.218 7.35 6.08 13.02
12/12/2020 6:15:00 AM 7.5801 1.1437
12/12/2020 6:30:00 AM 7.6113 1.1499
12/12/2020 6:30:00 AM 2.88 37.184 0.217 7.35 5.63 13.01
12/12/2020 6:45:00 AM 2.88 37.184 0.217 7.34 6.1 12.99
12/12/2020 6:45:00 AM 7.6287 1.1149
12/12/2020 7:00:00 AM 7.6355 1.0583
12/12/2020 7:00:00 AM 2.88 37.184 0.217 7.35 5.99 13
12/12/2020 7:15:00 AM 2.87 37.166 0.217 7.33 5.92 13
12/12/2020 7:15:00 AM 7.6384 1.0564
12/12/2020 7:30:00 AM 7.6381 1.0652
12/12/2020 7:30:00 AM 2.88 37.184 0.217 7.32 6.06 12.97
12/12/2020 7:45:00 AM 2.88 37.184 0.217 7.32 6.26 12.98
12/12/2020 7:45:00 AM 7.6384 1.0599
12/12/2020 8:00:00 AM 7.6391 1.0539
12/12/2020 8:00:00 AM 2.89 37.202 0.217 7.32 6.17 13
12/12/2020 8:15:00 AM 2.9 37.22 0.217 7.31 6.05 13
12/12/2020 8:15:00 AM 7.6374 1.0625
12/12/2020 8:30:00 AM 7.6389 1.0439
12/12/2020 8:30:00 AM 2.92 37.256 0.217 7.3 6.5 13
12/12/2020 8:45:00 AM 2.93 37.274 0.217 7.3 6.14 13.01
12/12/2020 8:45:00 AM 7.6412 1.0001
12/12/2020 9:00:00 AM
12/12/2020 9:00:00 AM 2.94 37.292 0.217 7.29 6.61 13.02
12/12/2020 9:15:00 AM 2.97 37.346 0.217 7.29 6.35 13.02
12/12/2020 9:15:00 AM
12/12/2020 9:30:00 AM
12/12/2020 9:30:00 AM 2.99 37.382 0.217 7.28 6.11 13.06
12/12/2020 9:45:00 AM 3.02 37.436 0.217 7.28 6.69 13.07
12/12/2020 9:45:00 AM
12/12/2020 10:00:00 AM
12/12/2020 10:00:00 AM 3.05 37.49 0.217 7.27 6.26 13.08
12/12/2020 10:15:00 AM 3.08 37.544 0.217 7.26 6.23 13.1
12/12/2020 10:15:00 AM
12/12/2020 10:30:00 AM
12/12/2020 10:30:00 AM 3.12 37.616 0.217 7.26 7.29 13.11
12/12/2020 10:45:00 AM 3.16 37.688 0.217 7.26 6.68 13.15
12/12/2020 10:45:00 AM
12/12/2020 11:00:00 AM
12/12/2020 11:00:00 AM 3.19 37.742 0.217 7.24 6.5 13.19
12/12/2020 11:15:00 AM 3.23 37.814 0.217 7.24 6.23 13.21
12/12/2020 11:15:00 AM
12/12/2020 11:30:00 AM
12/12/2020 11:30:00 AM 3.27 37.886 0.217 7.24 5.81 13.22
12/12/2020 11:45:00 AM 3.31 37.958 0.217 7.24 5.87 13.26
12/12/2020 11:45:00 AM
12/12/2020 12:00:00 PM 7.6577 0.9983
12/12/2020 12:00:00 PM 3.35 38.03 0.217 7.23 6.39 13.27
12/12/2020 12:15:00 PM 3.39 38.102 0.217 7.23 5.8 13.28
12/12/2020 12:15:00 PM 7.6617 0.9898
12/12/2020 12:30:00 PM 7.6725 0.9624
12/12/2020 12:30:00 PM 3.43 38.174 0.217 7.24 6.25 13.34
12/12/2020 12:45:00 PM 3.46 38.228 0.217 7.26 5.98 13.36
12/12/2020 12:45:00 PM 7.6825 1.0043
12/12/2020 1:00:00 PM 7.6906 1.0396
12/12/2020 1:00:00 PM 3.5 38.3 0.217 7.25 6.72 13.38
12/12/2020 1:15:00 PM 3.54 38.372 0.217 7.24 6.32 13.41
12/12/2020 1:15:00 PM 7.698 1.0373
12/12/2020 1:30:00 PM 7.708 1.0819
12/12/2020 1:30:00 PM 3.57 38.426 0.217 7.25 6.2 13.42
12/12/2020 1:45:00 PM 3.62 38.516 0.217 7.25 6.03 13.45
12/12/2020 1:45:00 PM 7.7168 1.0446
12/12/2020 2:00:00 PM 7.7257 1.0189
12/12/2020 2:00:00 PM 3.66 38.588 0.217 7.25 5.9 13.46
12/12/2020 2:15:00 PM 3.72 38.696 0.217 7.25 5.73 13.49
12/12/2020 2:15:00 PM 7.7353 0.9431
12/12/2020 2:30:00 PM 7.7437 0.9337
12/12/2020 2:30:00 PM 3.77 38.786 0.217 7.27 5.63 13.54
12/12/2020 2:45:00 PM 3.81 38.858 0.217 7.26 5.95 13.53
12/12/2020 2:45:00 PM 7.7519 0.9236
12/12/2020 3:00:00 PM 7.759 0.9268
12/12/2020 3:00:00 PM 3.84 38.912 0.217 7.27 6.22 13.53
12/12/2020 3:15:00 PM 3.85 38.93 0.217 7.26 6.41 13.54
12/12/2020 3:15:00 PM 7.7648 0.9193
12/12/2020 3:30:00 PM 7.7708 0.9283
12/12/2020 3:30:00 PM 3.89 39.002 0.217 7.26 5.6 13.55
12/12/2020 3:45:00 PM 3.9 39.02 0.217 7.27 5.91 13.58
12/12/2020 3:45:00 PM 7.7785 0.9327
12/12/2020 4:00:00 PM 7.7861 0.9325
12/12/2020 4:00:00 PM 3.9 39.02 0.218 7.28 6.39 13.58
12/12/2020 4:15:00 PM 3.91 39.038 0.218 7.28 5.74 13.57
12/12/2020 4:15:00 PM 7.789 0.9443
12/12/2020 4:30:00 PM 7.7962 0.9226
12/12/2020 4:30:00 PM 3.91 39.038 0.218 7.28 5.57 13.54
12/12/2020 4:45:00 PM 3.92 39.056 0.218 7.3 5.94 13.52
12/12/2020 4:45:00 PM 7.7977 0.9253
12/12/2020 5:00:00 PM 7.802 0.9328
12/12/2020 5:00:00 PM 3.93 39.074 0.218 7.29 6.14 13.47
12/12/2020 5:15:00 PM 3.93 39.074 0.218 7.32 6.2 13.47
12/12/2020 5:15:00 PM 7.8043 0.9523
12/12/2020 5:30:00 PM 7.8135 0.9452
12/12/2020 5:30:00 PM 3.93 39.074 0.218 7.32 5.82 13.44
12/12/2020 5:45:00 PM 3.93 39.074 0.218 7.32 6.52 13.42
12/12/2020 5:45:00 PM 7.8176 0.9998
12/12/2020 6:00:00 PM 7.8187 0.9479
12/12/2020 6:00:00 PM 3.92 39.056 0.218 7.31 5 13.39
12/12/2020 6:15:00 PM 3.93 39.074 0.218 7.31 6.16 13.35
12/12/2020 6:15:00 PM 7.8236 0.9451
12/12/2020 6:30:00 PM 7.8368 0.9491
12/12/2020 6:30:00 PM 3.93 39.074 0.218 7.32 7.2 13.33
12/12/2020 6:45:00 PM 3.92 39.056 0.218 7.31 7.22 13.3
12/12/2020 6:45:00 PM 8.2092 0.948
12/12/2020 7:00:00 PM 8.4171 1.0609
12/12/2020 7:00:00 PM 3.93 39.074 0.218 7.31 6.97 13.26
12/12/2020 7:15:00 PM 3.93 39.074 0.218 7.31 7.16 13.23
12/12/2020 7:15:00 PM 8.4319 1.017
12/12/2020 7:30:00 PM 8.4291 0.9886
12/12/2020 7:30:00 PM 3.94 39.092 0.218 7.31 7.65 13.19
12/12/2020 7:45:00 PM 3.94 39.092 0.218 7.3 7.47 13.13
12/12/2020 7:45:00 PM 8.4299 0.9587
12/12/2020 8:00:00 PM 8.3966 0.931
12/12/2020 8:00:00 PM 3.94 39.092 0.218 7.32 7.57 13.11
12/12/2020 8:15:00 PM 3.95 39.11 0.218 7.31 7.03 13.09
12/12/2020 8:15:00 PM 8.4222 0.99
12/12/2020 8:30:00 PM 8.4068 0.9801
12/12/2020 8:30:00 PM 3.96 39.128 0.219 7.3 7.14 13.05
12/12/2020 8:45:00 PM 3.97 39.146 0.219 7.29 6.92 13.03
12/12/2020 8:45:00 PM 8.3874 1.0001
12/12/2020 9:00:00 PM 8.3576 1.028
12/12/2020 9:00:00 PM 3.97 39.146 0.219 7.29 7.3 13.02
12/12/2020 9:15:00 PM 3.98 39.164 0.219 7.29 7.33 13
12/12/2020 9:15:00 PM 8.3621 1.064
12/12/2020 9:30:00 PM 8.3505 1.0537
12/12/2020 9:30:00 PM 3.99 39.182 0.219 7.28 7.3 12.98
12/12/2020 9:45:00 PM 4.01 39.218 0.219 7.28 7.87 12.96
12/12/2020 9:45:00 PM 8.2967 1.0858
12/12/2020 10:00:00 PM 8.2322 1.0566
12/12/2020 10:00:00 PM 4.01 39.218 0.219 7.29 7.97 12.95
12/12/2020 10:15:00 PM 4.01 39.218 0.219 7.28 7.42 12.95
12/12/2020 10:15:00 PM 8.2683 1.0749
12/12/2020 10:30:00 PM 8.304 1.0304
12/12/2020 10:30:00 PM 4.03 39.254 0.219 7.27 7.81 12.91
12/12/2020 10:45:00 PM 4.04 39.272 0.219 7.28 7.27 12.92
12/12/2020 10:45:00 PM 8.3436 1.0223
12/12/2020 11:00:00 PM 8.2829 1.0307
12/12/2020 11:00:00 PM 4.05 39.29 0.219 7.27 7.21 12.89
12/12/2020 11:15:00 PM 4.06 39.308 0.219 7.28 7.8 12.89
12/12/2020 11:15:00 PM 8.2794 1.0282
12/12/2020 11:30:00 PM 8.2619 1.0132
12/12/2020 11:30:00 PM 4.07 39.326 0.219 7.27 7.37 12.87
12/12/2020 11:45:00 PM 4.07 39.326 0.219 7.28 6.81 12.89
12/12/2020 11:45:00 PM 8.253 1.0999
12/13/2020 12:00:00 AM 8.2325 1.0321
12/13/2020 12:00:00 AM 4.07 39.326 0.219 7.28 7.33 12.85
12/13/2020 12:15:00 AM 4.08 39.344 0.219 7.28 7.66 12.85
12/13/2020 12:15:00 AM 8.2132 1.0333
12/13/2020 12:30:00 AM 8.2022 1.0524
12/13/2020 12:30:00 AM 4.1 39.38 0.219 7.27 7.64 12.83
12/13/2020 12:45:00 AM 4.1 39.38 0.219 7.27 7.65 12.8
12/13/2020 12:45:00 AM 8.1912 1.0434
12/13/2020 1:00:00 AM 8.1734 1.0518
12/13/2020 1:00:00 AM 4.11 39.398 0.219 7.28 7.91 12.81
12/13/2020 1:15:00 AM 4.12 39.416 0.22 7.28 7.77 12.8
12/13/2020 1:15:00 AM 8.1569 1.0538
12/13/2020 1:30:00 AM 8.1455 1.0853
12/13/2020 1:30:00 AM 4.13 39.434 0.22 7.29 7.74 12.8
12/13/2020 1:45:00 AM 4.13 39.434 0.22 7.28 7.68 12.8
12/13/2020 1:45:00 AM 8.1369 1.1876
12/13/2020 2:00:00 AM 8.1209 1.1188
12/13/2020 2:00:00 AM 4.13 39.434 0.22 7.28 8.13 12.79
12/13/2020 2:15:00 AM 4.13 39.434 0.22 7.28 7.73 12.78
12/13/2020 2:15:00 AM 8.1159 1.1405
12/13/2020 2:30:00 AM 8.1119 1.1307
12/13/2020 2:30:00 AM 4.13 39.434 0.221 7.28 7.99 12.76
12/13/2020 2:45:00 AM 4.13 39.434 0.22 7.28 8.26 12.74
12/13/2020 2:45:00 AM 8.1074 1.1999
12/13/2020 3:00:00 AM 8.0818 1.1317
12/13/2020 3:00:00 AM 4.13 39.434 0.22 7.29 8.33 12.73
12/13/2020 3:15:00 AM 4.15 39.47 0.22 7.29 8.37 12.7
12/13/2020 3:15:00 AM 8.0653 1.1297
12/13/2020 3:30:00 AM 8.055 1.1482
12/13/2020 3:30:00 AM 4.14 39.452 0.22 7.29 8.18 12.7
12/13/2020 3:45:00 AM 4.15 39.47 0.22 7.29 8.64 12.68
12/13/2020 3:45:00 AM 8.0466 1.1539
12/13/2020 4:00:00 AM 8.036 1.1428
12/13/2020 4:00:00 AM 4.14 39.452 0.22 7.3 8.02 12.65
12/13/2020 4:15:00 AM 4.14 39.452 0.22 7.3 8.25 12.65
12/13/2020 4:15:00 AM 8.0253 1.1338
12/13/2020 4:30:00 AM 8.016 1.1353
12/13/2020 4:30:00 AM 4.14 39.452 0.22 7.3 8.58 12.63
12/13/2020 4:45:00 AM 4.13 39.434 0.22 7.3 8.82 12.61
12/13/2020 4:45:00 AM 8.0106 1.1456
12/13/2020 5:00:00 AM 8.0027 1.1426
12/13/2020 5:00:00 AM 4.12 39.416 0.221 7.31 8.33 12.6
12/13/2020 5:15:00 AM 4.12 39.416 0.22 7.31 8.52 12.59
12/13/2020 5:15:00 AM 7.9964 1.1372
12/13/2020 5:30:00 AM 7.9972 1.1419
12/13/2020 5:30:00 AM 4.12 39.416 0.219 7.31 9.02 12.57
12/13/2020 5:45:00 AM 4.12 39.416 0.22 7.31 9.1 12.57
12/13/2020 5:45:00 AM 7.9996 1.0997
12/13/2020 6:00:00 AM 7.8936 1.1986
12/13/2020 6:00:00 AM 4.11 39.398 0.221 7.31 9.36 12.54
12/13/2020 6:15:00 AM 4.11 39.398 0.221 7.31 9.35 12.54
12/13/2020 6:15:00 AM 7.9495 1.2404
12/13/2020 6:30:00 AM 7.9686 1.247
12/13/2020 6:30:00 AM 4.1 39.38 0.221 7.32 9.25 12.52
12/13/2020 6:45:00 AM 4.1 39.38 0.221 7.32 9.42 12.52
12/13/2020 6:45:00 AM 7.9706 1.159
12/13/2020 7:00:00 AM 7.9777 1.1335
12/13/2020 7:00:00 AM 4.11 39.398 0.221 7.32 9.72 12.49
12/13/2020 7:15:00 AM 4.11 39.398 0.221 7.31 9.79 12.48
12/13/2020 7:15:00 AM 7.9712 1.1509
12/13/2020 7:30:00 AM 7.9727 1.1504
12/13/2020 7:30:00 AM 4.11 39.398 0.221 7.31 9.75 12.48
12/13/2020 7:45:00 AM 4.1 39.38 0.221 7.32 10.65 12.47
12/13/2020 7:45:00 AM 7.9697 1.1484
12/13/2020 8:00:00 AM 7.9675 1.2252
12/13/2020 8:00:00 AM 4.09 39.362 0.221 7.31 9.93 12.47
12/13/2020 8:15:00 AM 4.1 39.38 0.221 7.32 10.02 12.46
12/13/2020 8:15:00 AM 7.9721 1.2571
12/13/2020 8:30:00 AM 7.9752 1.3313
12/13/2020 8:30:00 AM 4.11 39.398 0.221 7.31 9.69 12.49
12/13/2020 8:45:00 AM 4.12 39.416 0.221 7.31 9.86 12.52
12/13/2020 8:45:00 AM 7.98 1.3999
12/13/2020 9:00:00 AM
12/13/2020 9:00:00 AM 4.15 39.47 0.221 7.3 9.76 12.54
12/13/2020 9:15:00 AM 4.19 39.542 0.221 7.28 9.8 12.6
12/13/2020 9:15:00 AM
12/13/2020 9:30:00 AM
12/13/2020 9:30:00 AM 4.25 39.65 0.221 7.27 9.78 12.61
12/13/2020 9:45:00 AM 4.28 39.704 0.221 7.23 9.58 12.64
12/13/2020 9:45:00 AM
12/13/2020 10:00:00 AM
12/13/2020 10:00:00 AM 4.31 39.758 0.221 7.21 9.74 12.67
12/13/2020 10:15:00 AM 4.37 39.866 0.221 7.19 9.99 12.72
12/13/2020 10:15:00 AM
12/13/2020 10:30:00 AM
12/13/2020 10:30:00 AM 4.42 39.956 0.221 7.18 9.73 12.75
12/13/2020 10:45:00 AM 4.45 40.01 0.221 7.16 9.81 12.78
12/13/2020 10:45:00 AM
12/13/2020 11:00:00 AM
12/13/2020 11:00:00 AM 4.49 40.082 0.221 7.16 9.24 12.85
12/13/2020 11:15:00 AM 4.55 40.19 0.221 7.15 10 12.89
12/13/2020 11:15:00 AM
12/13/2020 11:30:00 AM
12/13/2020 11:30:00 AM 4.61 40.298 0.221 7.14 9.93 12.94
12/13/2020 11:45:00 AM 4.66 40.388 0.221 7.15 9.76 12.98
12/13/2020 11:45:00 AM
12/13/2020 12:00:00 PM 8.0009 1.5412
12/13/2020 12:00:00 PM 4.72 40.496 0.221 7.16 9.81 13.02
12/13/2020 12:15:00 PM 4.8 40.64 0.221 7.17 9.96 13.08
12/13/2020 12:15:00 PM 8.0188 1.337
12/13/2020 12:30:00 PM 8.0275 1.1514
12/13/2020 12:30:00 PM 4.87 40.766 0.221 7.18 12.14 13.12
12/13/2020 12:45:00 PM 4.95 40.91 0.221 7.18 17.98 13.16
12/13/2020 12:45:00 PM 8.0311 1.2352
12/13/2020 1:00:00 PM 8.0373 1.2344
12/13/2020 1:00:00 PM 5.01 41.018 0.221 7.19 10.09 13.21
12/13/2020 1:15:00 PM 5.11 41.198 0.221 7.19 10.7 13.24
12/13/2020 1:15:00 PM 8.0394 1.1666
12/13/2020 1:30:00 PM 8.0474 1.1785
12/13/2020 1:30:00 PM 5.13 41.234 0.221 7.18 34.36 13.26
12/13/2020 1:45:00 PM 5.18 41.324 0.221 7.18 10.5 13.3
12/13/2020 1:45:00 PM 8.0434 1.1582
12/13/2020 2:00:00 PM 8.0495 1.2419
12/13/2020 2:00:00 PM 5.23 41.414 0.221 7.19 10.73 13.31
12/13/2020 2:15:00 PM 5.27 41.486 0.221 7.21 10.79 13.33
12/13/2020 2:15:00 PM 8.0577 1.2437
12/13/2020 2:30:00 PM 8.0728 1.251
12/13/2020 2:30:00 PM 5.33 41.594 0.221 7.22 10.01 13.34
12/13/2020 2:45:00 PM 5.35 41.63 0.221 7.24 10.19 13.37
12/13/2020 2:45:00 PM 8.0838 1.2424
12/13/2020 3:00:00 PM 8.0908 1.2441
12/13/2020 3:00:00 PM 5.38 41.684 0.221 7.25 16.92 13.37
12/13/2020 3:15:00 PM 5.41 41.738 0.221 7.27 10.07 13.38
12/13/2020 3:15:00 PM 8.1035 1.272
12/13/2020 3:30:00 PM 8.1181 1.2695
12/13/2020 3:30:00 PM 5.45 41.81 0.221 7.29 12.65 13.34
12/13/2020 3:45:00 PM 5.46 41.828 0.221 7.3 11.87 13.35
12/13/2020 3:45:00 PM 8.1211 1.2339
12/13/2020 4:00:00 PM 8.1299 1.2815
12/13/2020 4:00:00 PM 5.48 41.864 0.221 7.32 10.04 13.34
12/13/2020 4:15:00 PM 5.48 41.864 0.221 7.33 9.81 13.32
12/13/2020 4:15:00 PM 8.1116 1.3299
12/13/2020 4:30:00 PM 8.0116 1.2616
12/13/2020 4:30:00 PM 5.47 41.846 0.221 7.34 10.03 13.29
12/13/2020 4:45:00 PM 5.46 41.828 0.221 7.34 10.15 13.25
12/13/2020 4:45:00 PM 7.9474 1.2695
12/13/2020 5:00:00 PM 7.9128 1.1847
12/13/2020 5:00:00 PM 5.45 41.81 0.221 7.35 10.06 13.21
12/13/2020 5:15:00 PM 5.44 41.792 0.221 7.36 10.17 13.18
12/13/2020 5:15:00 PM 7.898 1.1974
12/13/2020 5:30:00 PM 7.8923 1.1745
12/13/2020 5:30:00 PM 5.44 41.792 0.221 7.36 9.77 13.12
12/13/2020 5:45:00 PM 5.4 41.72 0.221 7.38 10.46 13.1
12/13/2020 5:45:00 PM 7.8862 1.1
12/13/2020 6:00:00 PM 7.8829 1.1459
12/13/2020 6:00:00 PM 5.38 41.684 0.221 7.38 10.31 13.04
12/13/2020 6:15:00 PM 5.35 41.63 0.221 7.39 10.31 12.97
12/13/2020 6:15:00 PM 7.8723 1.1306
12/13/2020 6:30:00 PM 7.8634 1.1446
12/13/2020 6:30:00 PM 5.31 41.558 0.222 7.39 10.43 12.95
12/13/2020 6:45:00 PM 5.3 41.54 0.222 7.4 10.84 12.89
12/13/2020 6:45:00 PM 7.8614 1.0774
12/13/2020 7:00:00 PM 7.8586 1.0734
12/13/2020 7:00:00 PM 5.28 41.504 0.222 7.4 10.91 12.86
12/13/2020 7:15:00 PM 5.25 41.45 0.222 7.41 11.14 12.81
12/13/2020 7:15:00 PM 7.8529 1.0561
12/13/2020 7:30:00 PM 7.849 1.0589
12/13/2020 7:30:00 PM 5.22 41.396 0.222 7.43 10.78 12.79
12/13/2020 7:45:00 PM 5.19 41.342 0.222 7.43 12.19 12.74
12/13/2020 7:45:00 PM 7.841 1.059
12/13/2020 8:00:00 PM 7.832 1.1473
12/13/2020 8:00:00 PM 5.16 41.288 0.222 7.44 12.43 12.72
12/13/2020 8:15:00 PM 5.14 41.252 0.222 7.44 11.89 12.67
12/13/2020 8:15:00 PM 7.8255 1.0597
12/13/2020 8:30:00 PM 7.8181 1.0509
12/13/2020 8:30:00 PM 5.12 41.216 0.222 7.45 12.25 12.63
12/13/2020 8:45:00 PM 5.1 41.18 0.222 7.45 12.13 12.62
12/13/2020 8:45:00 PM 7.8148 1.1001
12/13/2020 9:00:00 PM 7.8039 1.03
12/13/2020 9:00:00 PM 5.07 41.126 0.222 7.45 12.1 12.61
12/13/2020 9:15:00 PM 5.06 41.108 0.222 7.45 12 12.59
12/13/2020 9:15:00 PM 7.8007 1.026
12/13/2020 9:30:00 PM 7.7947 1.0133
12/13/2020 9:30:00 PM 5.04 41.072 0.222 7.46 12.5 12.57
12/13/2020 9:45:00 PM 5.02 41.036 0.222 7.46 12.57 12.55
12/13/2020 9:45:00 PM 7.7852 1.1567
12/13/2020 10:00:00 PM 7.7721 1.1236
12/13/2020 10:00:00 PM 4.99 40.982 0.222 7.45 12.3 12.53
12/13/2020 10:15:00 PM 4.96 40.928 0.222 7.46 12.06 12.53
12/13/2020 10:15:00 PM 7.7638 1.1229
12/13/2020 10:30:00 PM 7.7562 1.2453
12/13/2020 10:30:00 PM 4.94 40.892 0.222 7.46 11.84 12.52
12/13/2020 10:45:00 PM 4.91 40.838 0.221 7.47 12.57 12.51
12/13/2020 10:45:00 PM 7.7431 1.1486
12/13/2020 11:00:00 PM 7.7389 1.0773
12/13/2020 11:00:00 PM 4.88 40.784 0.221 7.5 12.26 12.49
12/13/2020 11:15:00 PM 4.85 40.73 0.221 7.52 12.22 12.51
12/13/2020 11:15:00 PM 7.7341 1.0625
12/13/2020 11:30:00 PM 7.7206 1.0567
12/13/2020 11:30:00 PM 4.83 40.694 0.221 7.52 12.51 12.5
12/13/2020 11:45:00 PM 4.8 40.64 0.221 7.53 12.27 12.49
12/13/2020 11:45:00 PM 7.7168 1.0999
12/14/2020 12:00:00 AM 7.7121 1.0303
12/14/2020 12:00:00 AM 4.78 40.604 0.221 7.54 12.42 12.49
12/14/2020 12:15:00 AM 4.75 40.55 0.221 7.55 11.98 12.5
12/14/2020 12:15:00 AM 7.7056 1.0321
12/14/2020 12:30:00 AM 7.6965 1.0461
12/14/2020 12:30:00 AM 4.73 40.514 0.221 7.56 13.9 12.49
12/14/2020 12:45:00 AM 4.71 40.478 0.221 7.56 13.13 12.48
12/14/2020 12:45:00 AM 7.6894 1.0263
12/14/2020 1:00:00 AM 7.668 1.0307
12/14/2020 1:00:00 AM 4.69 40.442 0.221 7.55 14.88 12.47
12/14/2020 1:15:00 AM 4.67 40.406 0.221 7.55 13.37 12.47
12/14/2020 1:15:00 AM 7.6513 1.0308
12/14/2020 1:30:00 AM 7.6492 1.0711
12/14/2020 1:30:00 AM 4.66 40.388 0.221 7.54 13.82 12.45
12/14/2020 1:45:00 AM 4.64 40.352 0.221 7.54 12.87 12.46
12/14/2020 1:45:00 AM 7.6391 1.0621
12/14/2020 2:00:00 AM 7.6229 1.0579
12/14/2020 2:00:00 AM 4.63 40.334 0.221 7.53 13.32 12.44
12/14/2020 2:15:00 AM 4.62 40.316 0.221 7.52 13.07 12.43
12/14/2020 2:15:00 AM 7.6062 1.0464
12/14/2020 2:30:00 AM 7.5956 1.0793
12/14/2020 2:30:00 AM 4.61 40.298 0.221 7.51 13.53 12.44
12/14/2020 2:45:00 AM 4.6 40.28 0.221 7.5 14.03 12.43
12/14/2020 2:45:00 AM 7.5866 1.1003
12/14/2020 3:00:00 AM 7.577 1.0457
12/14/2020 3:00:00 AM 4.59 40.262 0.221 7.5 13.58 12.43
12/14/2020 3:15:00 AM 4.58 40.244 0.223 7.49 13.75 12.39
12/14/2020 3:15:00 AM 7.5668 1.0868
12/14/2020 3:30:00 AM 7.5597 1.0469
12/14/2020 3:30:00 AM 4.57 40.226 0.209 7.48 13.86 12.39
12/14/2020 3:45:00 AM 4.56 40.208 0.22 7.48 13.86 12.38
12/14/2020 3:45:00 AM 7.5612 1.0278
12/14/2020 4:00:00 AM 7.563 1.0285
12/14/2020 4:00:00 AM 4.56 40.208 0.195 7.47 14.13 12.39
12/14/2020 4:15:00 AM 4.55 40.19 0.216 7.46 14.43 12.34
12/14/2020 4:15:00 AM 7.5599 1.065
12/14/2020 4:30:00 AM 7.5463 1.0547
12/14/2020 4:30:00 AM 4.55 40.19 0.219 7.46 14.37 12.34
12/14/2020 4:45:00 AM 4.54 40.172 0.217 7.45 14.06 12.32
12/14/2020 4:45:00 AM 7.5364 1.0402
12/14/2020 5:00:00 AM 7.5353 1.0381
12/14/2020 5:00:00 AM 4.54 40.172 0.22 7.43 14.27 12.33
12/14/2020 5:15:00 AM 4.54 40.172 0.214 7.43 15.06 12.33
12/14/2020 5:15:00 AM 7.5302 1.0464
12/14/2020 5:30:00 AM 7.5213 1.0267
12/14/2020 5:30:00 AM 4.53 40.154 0.187 7.42 14.28 12.33
12/14/2020 5:45:00 AM 4.52 40.136 0.215 7.4 15.11 12.33
12/14/2020 5:45:00 AM 7.5166 1
12/14/2020 6:00:00 AM 7.4577 1.0295
12/14/2020 6:00:00 AM 4.51 40.118 0.219 7.39 15 12.33
12/14/2020 6:15:00 AM 4.49 40.082 0.218 7.39 14.82 12.32
12/14/2020 6:15:00 AM 7.4968 1.0296
12/14/2020 6:30:00 AM 7.511 1.0269
12/14/2020 6:30:00 AM 4.48 40.064 0.217 7.37 15.03 12.31
12/14/2020 6:45:00 AM 4.46 40.028 0.217 7.37 15.44 12.3
12/14/2020 6:45:00 AM 7.5176 1.0194
12/14/2020 7:00:00 AM 7.517 1.0264
12/14/2020 7:00:00 AM 4.45 40.01 0.216 7.36 15.3 12.29
12/14/2020 7:15:00 AM 4.44 39.992 0.216 7.37 16.02 12.27
12/14/2020 7:15:00 AM 7.5158 1.0265
12/14/2020 7:30:00 AM 7.5084 1.0249
12/14/2020 7:30:00 AM 4.43 39.974 0.216 7.37 15.75 12.28
12/14/2020 7:45:00 AM 4.42 39.956 0.215 7.37 16.3 12.28
12/14/2020 7:45:00 AM 7.5091 1.0994
12/14/2020 8:00:00 AM 7.5096 1.0538
12/14/2020 8:00:00 AM 4.41 39.938 0.215 7.37 16.08 12.29
12/14/2020 8:15:00 AM 4.38 39.884 0.215 7.37 17.28 12.27
12/14/2020 8:15:00 AM 7.5111 1.0391
12/14/2020 8:30:00 AM 7.5064 1.1295
12/14/2020 8:30:00 AM 4.36 39.848 0.215 7.36 17.41 12.27
12/14/2020 8:45:00 AM 4.33 39.794 0.214 7.37 16.92 12.26
12/14/2020 8:45:00 AM 7.4998 1
12/14/2020 9:00:00 AM 7.5 1.0615
12/14/2020 9:00:00 AM 4.3 39.74 0.214 7.36 17.16 12.26
12/14/2020 9:15:00 AM 4.27 39.686 0.214 7.35 17.91 12.27
12/14/2020 9:15:00 AM 7.501 1.1275
12/14/2020 9:30:00 AM 7.5023 1.38
12/14/2020 9:30:00 AM 4.24 39.632 0.214 7.36 17.97 12.25
12/14/2020 9:45:00 AM 4.2 39.56 0.214 7.36 19.15 12.28
12/14/2020 9:45:00 AM 7.5074 1.1885
12/14/2020 10:00:00 AM 7.5136 1.0785
12/14/2020 10:00:00 AM 4.16 39.488 0.214 7.36 19.77 12.27
12/14/2020 10:15:00 AM 4.11 39.398 0.215 7.35 20.2 12.29
12/14/2020 10:15:00 AM 7.514 1.0318
12/14/2020 10:30:00 AM 7.5114 1.0169
12/14/2020 10:30:00 AM 4.07 39.326 0.213 7.35 31.69 12.32
12/14/2020 10:45:00 AM 4.04 39.272 0.215 7.35 21.66 12.32
12/14/2020 10:45:00 AM 7.5052 1.0276
12/14/2020 11:00:00 AM 7.505 1.0276
12/14/2020 11:00:00 AM 4.02 39.236 0.215 7.35 25.87 12.35
12/14/2020 11:15:00 AM 4.02 39.236 0.215 7.35 21.39 12.38
12/14/2020 11:15:00 AM 7.5063 1.0477
12/14/2020 11:30:00 AM 7.512 1.1963
12/14/2020 11:30:00 AM 3.99 39.182 0.213 7.33 24.08 12.39
12/14/2020 11:45:00 AM 3.99 39.182 0.194 7.32 23.53 12.42
12/14/2020 11:45:00 AM 7.5166 1.1999
12/14/2020 12:00:00 PM 7.5337 1.1292
12/14/2020 12:00:00 PM 3.96 39.128 0.204 7.31 26.58 12.41
12/14/2020 12:15:00 PM 3.95 39.11 0.204 7.31 26.69 12.47
12/14/2020 12:15:00 PM 7.5395 1.0488
12/14/2020 12:30:00 PM 7.5441 1.0284
12/14/2020 12:30:00 PM 3.95 39.11 0.209 7.31 25.57 12.5
12/14/2020 12:45:00 PM 3.97 39.146 0.21 7.3 24.34 12.53
12/14/2020 12:45:00 PM 7.5503 1.0188
12/14/2020 1:00:00 PM 7.5495 1.0294
12/14/2020 1:00:00 PM 3.98 39.164 0.186 7.28 26.57 12.54
12/14/2020 1:15:00 PM 3.98 39.164 0.202 7.28 27.47 12.56
12/14/2020 1:15:00 PM 7.5472 1.125
12/14/2020 1:30:00 PM 7.5551 1.3932
12/14/2020 1:30:00 PM 4 39.2 0.199 7.27 27.68 12.59
12/14/2020 1:45:00 PM 4.02 39.236 0.202 7.27 27.47 12.64
12/14/2020 1:45:00 PM 7.5669 1.1665
12/14/2020 2:00:00 PM 7.5813 1.054
12/14/2020 2:00:00 PM 4.04 39.272 0.193 7.28 27.33 12.65
12/14/2020 2:15:00 PM 4.05 39.29 0.205 7.26 28.37 12.66
12/14/2020 2:15:00 PM 7.5865 1.0209
12/14/2020 2:30:00 PM 7.5888 1.042
12/14/2020 2:30:00 PM 4.09 39.362 0.176 7.25 29.7 12.68
12/14/2020 2:45:00 PM 4.15 39.47 0.194 7.25 29.17 12.71
12/14/2020 2:45:00 PM 7.587 1.0354
12/14/2020 3:00:00 PM 7.5931 1.0586
12/14/2020 3:00:00 PM 4.18 39.524 0.186 7.26 33.7 12.73
12/14/2020 3:15:00 PM 4.2 39.56 0.186 7.25 34.82 12.73
12/14/2020 3:15:00 PM 7.613 1.0468
12/14/2020 3:30:00 PM 7.628 1.043
12/14/2020 3:30:00 PM 4.22 39.596 0.191 7.25 36.66 12.73
12/14/2020 3:45:00 PM 4.22 39.596 0.193 7.25 36.15 12.72
12/14/2020 3:45:00 PM 7.6398 1.0355
12/14/2020 4:00:00 PM 7.6508 1.0599
12/14/2020 4:00:00 PM 4.23 39.614 0.195 7.26 36.42 12.72
12/14/2020 4:15:00 PM 4.23 39.614 0.195 7.26 37.78 12.69
12/14/2020 4:15:00 PM 7.6607 1.0544
12/14/2020 4:30:00 PM 7.6695 1.0561
12/14/2020 4:30:00 PM 4.23 39.614 0.193 7.26 37.22 12.67
12/14/2020 4:45:00 PM 4.21 39.578 0.175 7.26 36.86 12.68
12/14/2020 4:45:00 PM 7.6758 1.0502
12/14/2020 5:00:00 PM 7.6806 1.0544
12/14/2020 5:00:00 PM 4.19 39.542 0.206 7.26 38.18 12.64
12/14/2020 5:15:00 PM 4.17 39.506 0.201 7.26 37.39 12.63
12/14/2020 5:15:00 PM 7.6847 1.0664
12/14/2020 5:30:00 PM 7.6882 1.1365
12/14/2020 5:30:00 PM 4.15 39.47 0.192 7.26 35.39 12.63
12/14/2020 5:45:00 PM 4.14 39.452 0.198 7.26 36.6 12.59
12/14/2020 5:45:00 PM 7.6916 1.0001
12/14/2020 6:00:00 PM 7.6959 1.0253
12/14/2020 6:00:00 PM 4.13 39.434 0.202 7.26 37.75 12.58
12/14/2020 6:15:00 PM 4.12 39.416 0.195 7.25 37.32 12.52
12/14/2020 6:15:00 PM 7.6972 1.2914
12/14/2020 6:30:00 PM 7.7005 1.1848
12/14/2020 6:30:00 PM 4.11 39.398 0.198 7.24 37.33 12.52
12/14/2020 6:45:00 PM 4.1 39.38 0.207 7.24 35.48 12.56
12/14/2020 6:45:00 PM 7.7017 1.1168
12/14/2020 7:00:00 PM 7.6988 1.2463
12/14/2020 7:00:00 PM 4.09 39.362 0.204 7.24 38.1 12.51
12/14/2020 7:15:00 PM 4.06 39.308 0.205 7.24 37.34 12.51
12/14/2020 7:15:00 PM 7.6844 1.2486
12/14/2020 7:30:00 PM 7.6908 1.345
12/14/2020 7:30:00 PM 4.04 39.272 0.192 7.24 37.9 12.51
12/14/2020 7:45:00 PM 4 39.2 0.187 7.24 39.34 12.49
12/14/2020 7:45:00 PM 7.6897 1.3754
12/14/2020 8:00:00 PM 7.6938 1.2498
12/14/2020 8:00:00 PM 3.97 39.146 0.207 7.26 38.05 12.5
12/14/2020 8:15:00 PM 3.94 39.092 0.191 7.25 36.23 12.5
12/14/2020 8:15:00 PM 7.6932 1.2085
12/14/2020 8:30:00 PM 7.6877 1.2399
12/14/2020 8:30:00 PM 3.92 39.056 0.201 7.25 37.59 12.49
12/14/2020 8:45:00 PM 3.9 39.02 0.205 7.25 37.73 12.48
12/14/2020 8:45:00 PM 7.6888 1.2
12/14/2020 9:00:00 PM 7.6834 1.1911
12/14/2020 9:00:00 PM 3.88 38.984 0.207 7.25 37.85 12.47
12/14/2020 9:15:00 PM 3.86 38.948 0.21 7.25 38.36 12.46
12/14/2020 9:15:00 PM 7.686 1.1492
12/14/2020 9:30:00 PM 7.6854 1.1898
12/14/2020 9:30:00 PM 3.83 38.894 0.204 7.25 39.17 12.49
12/14/2020 9:45:00 PM 3.8 38.84 0.207 7.25 38.16 12.51
12/14/2020 9:45:00 PM 7.6915 1.2423
12/14/2020 10:00:00 PM 7.6906 1.236
12/14/2020 10:00:00 PM 3.78 38.804 0.207 7.25 39.01 12.51
12/14/2020 10:15:00 PM 3.75 38.75 0.19 7.25 37.98 12.52
12/14/2020 10:15:00 PM 7.6897 1.3189
12/14/2020 10:30:00 PM 7.6885 1.3718
12/14/2020 10:30:00 PM 3.71 38.678 0.198 7.25 39.22 12.53
12/14/2020 10:45:00 PM 3.68 38.624 0.201 7.24 39.23 12.55
12/14/2020 10:45:00 PM 7.6914 1.4448
12/14/2020 11:00:00 PM 7.6926 1.4837
12/14/2020 11:00:00 PM 3.65 38.57 0.211 7.24 40.2 12.55
12/14/2020 11:15:00 PM 3.62 38.516 0.212 7.25 39.8 12.55
12/14/2020 11:15:00 PM 7.6939 1.5526
12/14/2020 11:30:00 PM 7.6929 1.5459
12/14/2020 11:30:00 PM 3.59 38.462 0.212 7.25 40.12 12.57
12/14/2020 11:45:00 PM 3.57 38.426 0.21 7.24 40.32 12.6
12/14/2020 11:45:00 PM 7.693 1.6001
12/15/2020 12:00:00 AM 7.6962 1.3435
12/15/2020 12:00:00 AM 3.53 38.354 0.208 7.25 39.66 12.6
12/15/2020 12:15:00 AM 3.48 38.264 0.198 7.25 37.8 12.6
12/15/2020 12:15:00 AM 7.6935 1.3824
12/15/2020 12:30:00 AM 7.703 1.384
12/15/2020 12:30:00 AM 3.45 38.21 0.211 7.25 40.39 12.6
12/15/2020 12:45:00 AM 3.42 38.156 0.204 7.25 40.78 12.57
12/15/2020 12:45:00 AM 7.7036 1.3608
12/15/2020 1:00:00 AM 7.7038 1.3367
12/15/2020 1:00:00 AM 3.39 38.102 0.183 7.25 40.48 12.61
12/15/2020 1:15:00 AM 3.36 38.048 0.203 7.25 39.39 12.63
12/15/2020 1:15:00 AM 7.715 1.3297
12/15/2020 1:30:00 AM 7.7114 1.3413
12/15/2020 1:30:00 AM 3.33 37.994 0.209 7.25 35.5 12.62
12/15/2020 1:45:00 AM 3.29 37.922 0.211 7.25 41.64 12.63
12/15/2020 1:45:00 AM 7.715 1.3487
12/15/2020 2:00:00 AM 7.7106 1.2801
12/15/2020 2:00:00 AM 3.27 37.886 0.202 7.25 38.94 12.63
12/15/2020 2:15:00 AM 3.23 37.814 0.201 7.25 40.42 12.64
12/15/2020 2:15:00 AM 7.7117 1.2458
12/15/2020 2:30:00 AM 7.7239 1.2343
12/15/2020 2:30:00 AM 3.2 37.76 0.209 7.24 41.44 12.64
12/15/2020 2:45:00 AM 3.17 37.706 0.21 7.25 37.63 12.65
12/15/2020 2:45:00 AM 7.7266 1.3001
12/15/2020 3:00:00 AM 7.725 1.2245
12/15/2020 3:00:00 AM 3.15 37.67 0.214 7.26 32.2 12.65
12/15/2020 3:15:00 AM 3.12 37.616 0.206 7.26 38.07 12.67
12/15/2020 3:15:00 AM 7.7422 1.2391
12/15/2020 3:30:00 AM 7.7475 1.2273
12/15/2020 3:30:00 AM 3.09 37.562 0.214 7.24 36.31 12.68
12/15/2020 3:45:00 AM 3.06 37.508 0.213 7.23 33.06 12.67
12/15/2020 3:45:00 AM 7.741 1.2312
12/15/2020 4:00:00 AM 7.7459 1.2111
12/15/2020 4:00:00 AM 3.02 37.436 0.204 7.24 33.14 12.69
12/15/2020 4:15:00 AM 3 37.4 0.202 7.23 29.16 12.68
12/15/2020 4:15:00 AM 7.7203 1.2464
12/15/2020 4:30:00 AM 7.3592 1.2556
12/15/2020 4:30:00 AM 2.97 37.346 0.19 7.22 27.43 12.7
12/15/2020 4:45:00 AM 2.94 37.292 0.21 7.23 25.25 12.7
12/15/2020 4:45:00 AM 7.5737 1.2435
12/15/2020 5:00:00 AM 7.669 1.2518
12/15/2020 5:00:00 AM 2.92 37.256 0.21 7.23 28.68 12.71
12/15/2020 5:15:00 AM 2.89 37.202 0.208 7.23 27.33 12.72
12/15/2020 5:15:00 AM 7.7051 1.2068
12/15/2020 5:30:00 AM 7.7174 1.1654
12/15/2020 5:30:00 AM 2.88 37.184 0.209 7.24 25.62 12.73
12/15/2020 5:45:00 AM 2.82 37.076 0.209 7.23 25.81 12.73
12/15/2020 5:45:00 AM 7.7378 1.1997
12/15/2020 6:00:00 AM 7.7495 1.1329
12/15/2020 6:00:00 AM 2.8 37.04 0.205 7.22 27.22 12.72
12/15/2020 6:15:00 AM 2.77 36.986 0.212 7.23 25.37 12.74
12/15/2020 6:15:00 AM 7.7484 1.1382
12/15/2020 6:30:00 AM 7.7391 1.2112
12/15/2020 6:30:00 AM 2.75 36.95 0.215 7.23 25.97 12.75
12/15/2020 6:45:00 AM 2.72 36.896 0.215 7.22 26.81 12.76
12/15/2020 6:45:00 AM 7.7359 5.3225
12/15/2020 7:00:00 AM 7.7317 2.7597
12/15/2020 7:00:00 AM 2.69 36.842 0.208 7.22 31.22 12.76
12/15/2020 7:15:00 AM 2.69 36.842 0.215 7.24 25.27 12.77
12/15/2020 7:15:00 AM 7.7299 1.2069
12/15/2020 7:30:00 AM 7.7389 1.1616
12/15/2020 7:30:00 AM 2.65 36.77 0.215 7.22 26.03 12.78
12/15/2020 7:45:00 AM 2.64 36.752 0.213 7.22 27.78 12.78
12/15/2020 7:45:00 AM 7.736 1.1399
12/15/2020 8:00:00 AM 7.733 1.1402
12/15/2020 8:00:00 AM 2.65 36.77 0.216 7.24 24.5 12.79
12/15/2020 8:15:00 AM 2.63 36.734 0.218 7.21 23.43 12.8
12/15/2020 8:15:00 AM 7.7397 1.153
12/15/2020 8:30:00 AM 7.752 1.1291
12/15/2020 8:30:00 AM 2.64 36.752 0.217 7.23 23.94 12.82
12/15/2020 8:45:00 AM 2.63 36.734 0.218 7.25 23.43 12.84
12/15/2020 8:45:00 AM 7.7504 1.1998
12/15/2020 9:00:00 AM 7.7507 1.1238
12/15/2020 9:00:00 AM 2.66 36.788 0.209 7.25 24.67 12.89
12/15/2020 9:15:00 AM 2.65 36.77 0.21 7.24 30.5 12.91
12/15/2020 9:15:00 AM 7.7597 1.1514
12/15/2020 9:30:00 AM 7.7668 1.227
12/15/2020 9:30:00 AM 2.65 36.77 0.21 7.24 25.65 12.94
12/15/2020 9:45:00 AM 2.68 36.824 0.211 7.24 23.21 12.97
12/15/2020 9:45:00 AM 7.7624 1.1956
12/15/2020 10:00:00 AM 7.7502 1.4909
12/15/2020 10:00:00 AM 2.73 36.914 0.208 7.26 24.93 13.03
12/15/2020 10:15:00 AM 2.75 36.95 0.224 7.24 26.46 13.06
12/15/2020 10:15:00 AM 7.7515 1.158
12/15/2020 10:30:00 AM 7.7523 1.1401
12/15/2020 10:30:00 AM 2.81 37.058 0.222 7.26 26.01 13.11
12/15/2020 10:45:00 AM 2.83 37.094 0.224 7.25 26.38 13.16
12/15/2020 10:45:00 AM 7.7575 1.1349
12/15/2020 11:00:00 AM 7.7559 1.1269
12/15/2020 11:00:00 AM 2.86 37.148 0.227 7.27 24.86 13.19
12/15/2020 11:15:00 AM 2.91 37.238 0.225 7.26 28.96 13.26
12/15/2020 11:15:00 AM 7.7538 1.1364
12/15/2020 11:30:00 AM 7.7581 1.1571
12/15/2020 11:30:00 AM 2.97 37.346 0.228 7.26 26.02 13.3
12/15/2020 11:45:00 AM 3.04 37.472 0.219 7.28 25.47 13.34
12/15/2020 11:45:00 AM 7.7602 1.1001
12/15/2020 12:00:00 PM 7.7663 1.1416
12/15/2020 12:00:00 PM 3.11 37.598 0.226 7.3 26.21 13.4
12/15/2020 12:15:00 PM 3.17 37.706 0.223 7.31 27.47 13.44
12/15/2020 12:15:00 PM 7.7691 1.1592
12/15/2020 12:30:00 PM 7.7706 1.1439
12/15/2020 12:30:00 PM 3.2 37.76 0.225 7.32 28 13.47
12/15/2020 12:45:00 PM 3.24 37.832 0.227 7.32 25.41 13.49
12/15/2020 12:45:00 PM 7.7683 1.1496
12/15/2020 1:00:00 PM 7.7689 1.1536
12/15/2020 1:00:00 PM 3.3 37.94 0.228 7.33 24.28 13.5
12/15/2020 1:15:00 PM 3.33 37.994 0.225 7.32 27.23 13.55
12/15/2020 1:15:00 PM 7.7714 1.1283
12/15/2020 1:30:00 PM 7.7718 1.1464
12/15/2020 1:30:00 PM 3.36 38.048 0.226 7.33 24.47 13.57
12/15/2020 1:45:00 PM 3.41 38.138 0.234 7.34 26.08 13.6
12/15/2020 1:45:00 PM 7.7766 1.1538
12/15/2020 2:00:00 PM 7.7845 1.1304
12/15/2020 2:00:00 PM 3.45 38.21 0.223 7.35 26.04 13.62
12/15/2020 2:15:00 PM 3.48 38.264 0.223 7.35 22.23 13.6
12/15/2020 2:15:00 PM 7.7886 1.1287
12/15/2020 2:30:00 PM 7.8935 1.1496
12/15/2020 2:30:00 PM 3.5 38.3 0.223 7.35 23.24 13.64
12/15/2020 2:45:00 PM 3.52 38.336 0.22 7.35 24.69 13.68
12/15/2020 2:45:00 PM 8.1997 1.166
12/15/2020 3:00:00 PM 8.2815 1.1217
12/15/2020 3:00:00 PM 3.53 38.354 0.214 7.37 24.41 13.69
12/15/2020 3:15:00 PM 3.52 38.336 0.214 7.36 29 13.71
12/15/2020 3:15:00 PM 8.3124 1.0537
12/15/2020 3:30:00 PM 8.3305 1.0913
12/15/2020 3:30:00 PM 3.51 38.318 0.219 7.37 23.11 13.72
12/15/2020 3:45:00 PM 3.48 38.264 0.225 7.39 25.66 13.73
12/15/2020 3:45:00 PM 8.3365 1.0632
12/15/2020 4:00:00 PM 8.3571 1.0425
12/15/2020 4:00:00 PM 3.44 38.192 0.199 7.38 27.63 13.73
12/15/2020 4:15:00 PM 3.42 38.156 0.208 7.38 24.36 13.73
12/15/2020 4:15:00 PM 8.3152 1.0316
12/15/2020 4:30:00 PM 8.1827 1.0501
12/15/2020 4:30:00 PM 3.38 38.084 0.199 7.4 29.03 13.71
12/15/2020 4:45:00 PM 3.34 38.012 0.199 7.38 26.26 13.7
12/15/2020 4:45:00 PM 8.0879 1.0349
12/15/2020 5:00:00 PM 8.0399 1.0494
12/15/2020 5:00:00 PM 3.3 37.94 0.201 7.4 26.39 13.66
12/15/2020 5:15:00 PM 3.26 37.868 0.219 7.39 24.84 13.66
12/15/2020 5:15:00 PM 8.0222 1.0321
12/15/2020 5:30:00 PM 8.023 1.107
12/15/2020 5:30:00 PM 3.22 37.796 0.221 7.39 24.42 13.66
12/15/2020 5:45:00 PM 3.18 37.724 0.217 7.38 27.92 13.63
12/15/2020 5:45:00 PM 8.0304 1.2
12/15/2020 6:00:00 PM 8.0432 1.0682
12/15/2020 6:00:00 PM 3.14 37.652 0.219 7.38 30.25 13.64
12/15/2020 6:15:00 PM 3.11 37.598 0.213 7.37 31.81 13.62
12/15/2020 6:15:00 PM 8.0563 1.0789
12/15/2020 6:30:00 PM 8.0694 1.0502
12/15/2020 6:30:00 PM 3.07 37.526 0.215 7.38 27.87 13.59
12/15/2020 6:45:00 PM 3.04 37.472 0.225 7.36 30.16 13.58
12/15/2020 6:45:00 PM 8.0719 1.0391
12/15/2020 7:00:00 PM 8.0769 1.031
12/15/2020 7:00:00 PM 3 37.4 0.217 7.36 32.44 13.56
12/15/2020 7:15:00 PM 2.98 37.364 0.217 7.36 32.31 13.53
12/15/2020 7:15:00 PM 8.0816 1.0297
12/15/2020 7:30:00 PM 8.0797 1.0234
12/15/2020 7:30:00 PM 2.95 37.31 0.217 7.35 32.14 13.53
12/15/2020 7:45:00 PM 2.92 37.256 0.218 7.35 33.31 13.53
12/15/2020 7:45:00 PM 8.0844 1.0206
12/15/2020 8:00:00 PM 8.092 1.0329
12/15/2020 8:00:00 PM 2.9 37.22 0.217 7.35 31.83 13.52
12/15/2020 8:15:00 PM 2.87 37.166 0.215 7.34 33.95 13.5
12/15/2020 8:15:00 PM 8.0973 1.0189
12/15/2020 8:30:00 PM 8.0936 1.0152
12/15/2020 8:30:00 PM 2.84 37.112 0.213 7.35 31.77 13.5
12/15/2020 8:45:00 PM 2.82 37.076 0.216 7.34 31.65 13.5
12/15/2020 8:45:00 PM 8.0948 1.1
12/15/2020 9:00:00 PM 8.083 1.027
12/15/2020 9:00:00 PM 2.79 37.022 0.215 7.32 27.61 13.49
12/15/2020 9:15:00 PM 2.76 36.968 0.217 7.34 28.11 13.51
12/15/2020 9:15:00 PM 8.0774 1.0178
12/15/2020 9:30:00 PM 8.0771 1.0113
12/15/2020 9:30:00 PM 2.73 36.914 0.19 7.32 31.6 13.51
12/15/2020 9:45:00 PM 2.71 36.878 0.219 7.33 30.86 13.53
12/15/2020 9:45:00 PM 8.0649 1.078
12/15/2020 10:00:00 PM 8.0608 1.1145
12/15/2020 10:00:00 PM 2.68 36.824 0.218 7.33 31.93 13.52
12/15/2020 10:15:00 PM 2.65 36.77 0.219 7.31 30.95 13.52
12/15/2020 10:15:00 PM 8.0696 1.0555
12/15/2020 10:30:00 PM 8.0738 1.036
12/15/2020 10:30:00 PM 2.62 36.716 0.218 7.31 33.27 13.52
12/15/2020 10:45:00 PM 2.61 36.698 0.219 7.32 30.45 13.52
12/15/2020 10:45:00 PM 8.0736 1.0274
12/15/2020 11:00:00 PM 8.0651 1.0256
12/15/2020 11:00:00 PM 2.58 36.644 0.219 7.3 31.4 13.54
12/15/2020 11:15:00 PM 2.55 36.59 0.218 7.31 30.27 13.54
12/15/2020 11:15:00 PM 8.0584 1.0245
12/15/2020 11:30:00 PM 8.178 1.0317
12/15/2020 11:30:00 PM 2.52 36.536 0.218 7.32 31.14 13.53
12/15/2020 11:45:00 PM 2.5 36.5 0.218 7.33 32.64 13.52
12/15/2020 11:45:00 PM 8.3006 1.1
12/16/2020 12:00:00 AM 8.3869 1.0358
12/16/2020 12:00:00 AM 2.47 36.446 0.218 7.32 33.81 13.53
12/16/2020 12:15:00 AM 2.45 36.41 0.217 7.33 32.86 13.53
12/16/2020 12:15:00 AM 8.3919 1.0325
12/16/2020 12:30:00 AM 8.4058 1.0267
12/16/2020 12:30:00 AM 2.43 36.374 0.217 7.31 34.58 13.52
12/16/2020 12:45:00 AM 2.41 36.338 0.217 7.3 35.02 13.51
12/16/2020 12:45:00 AM 8.4125 1.0266
12/16/2020 1:00:00 AM 8.405 1.0329
12/16/2020 1:00:00 AM 2.38 36.284 0.217 7.31 35.56 13.51
12/16/2020 1:15:00 AM 2.35 36.23 0.217 7.31 35.33 13.51
12/16/2020 1:15:00 AM 8.4079 1.0276
12/16/2020 1:30:00 AM 8.3969 1.0247
12/16/2020 1:30:00 AM 2.33 36.194 0.216 7.31 35.85 13.5
12/16/2020 1:45:00 AM 2.31 36.158 0.216 7.3 33.29 13.52
12/16/2020 1:45:00 AM 8.379 1.0393
12/16/2020 2:00:00 AM 8.3393 1.0453
12/16/2020 2:00:00 AM 2.26 36.068 0.216 7.3 33.64 13.49
12/16/2020 2:15:00 AM 2.24 36.032 0.22 7.3 34.56 13.49
12/16/2020 2:15:00 AM 8.1846 1.0359
12/16/2020 2:30:00 AM 8.0791 1.0558
12/16/2020 2:30:00 AM 2.2 35.96 0.218 7.29 36.9 13.5
12/16/2020 2:45:00 AM 2.17 35.906 0.219 7.3 35.16 13.49
12/16/2020 2:45:00 AM 8.0556 0.9999
12/16/2020 3:00:00 AM 7.9996 1.0529
12/16/2020 3:00:00 AM 2.14 35.852 0.215 7.3 36.46 13.5
12/16/2020 3:15:00 AM 2.11 35.798 0.215 7.3 33.97 13.5
12/16/2020 3:15:00 AM 7.9819 1.0425
12/16/2020 3:30:00 AM 7.9712 1.0357
12/16/2020 3:30:00 AM 2.07 35.726 0.213 7.3 34.06 13.5
12/16/2020 3:45:00 AM 2.05 35.69 0.217 7.3 34.85 13.49
12/16/2020 3:45:00 AM 7.9657 1.0491
12/16/2020 4:00:00 AM 7.9567 1.0489
12/16/2020 4:00:00 AM 2.02 35.636 0.198 7.29 37.05 13.49
12/16/2020 4:15:00 AM 1.99 35.582 0.203 7.29 35.94 13.5
12/16/2020 4:15:00 AM 7.9517 1.0515
12/16/2020 4:30:00 AM 7.9443 1.051
12/16/2020 4:30:00 AM 1.97 35.546 0.215 7.28 36.89 13.49
12/16/2020 4:45:00 AM 1.93 35.474 0.208 7.27 34.3 13.49
12/16/2020 4:45:00 AM 7.9368 1.0332
12/16/2020 5:00:00 AM 7.9408 1.0325
12/16/2020 5:00:00 AM 1.9 35.42 0.216 7.27 38.3 13.49
12/16/2020 5:15:00 AM 1.88 35.384 0.214 7.26 37.45 13.49
12/16/2020 5:15:00 AM 8.0482 1.0553
12/16/2020 5:30:00 AM 8.1423 1.0359
12/16/2020 5:30:00 AM 1.85 35.33 0.203 7.26 36.39 13.49
12/16/2020 5:45:00 AM 1.82 35.276 0.214 7.26 37.09 13.49
12/16/2020 5:45:00 AM 8.1648 1.0002
12/16/2020 6:00:00 AM
12/16/2020 6:00:00 AM 1.79 35.222 0.216 7.26 36.01 13.47
12/16/2020 6:15:00 AM 1.77 35.186 0.216 7.26 35.54 13.5
12/16/2020 6:15:00 AM
12/16/2020 6:30:00 AM
12/16/2020 6:30:00 AM 1.76 35.168 0.214 7.26 36.47 13.48
12/16/2020 6:45:00 AM 1.75 35.15 0.214 7.26 37.53 13.49
12/16/2020 6:45:00 AM
12/16/2020 7:00:00 AM
12/16/2020 7:00:00 AM 1.73 35.114 0.215 7.27 34.59 13.48
12/16/2020 7:15:00 AM 1.71 35.078 0.214 7.26 36.07 13.49
12/16/2020 7:15:00 AM
12/16/2020 7:30:00 AM
12/16/2020 7:30:00 AM 1.69 35.042 0.214 7.25 34.93 13.49
12/16/2020 7:45:00 AM 1.67 35.006 0.214 7.26 34.32 13.49
12/16/2020 7:45:00 AM
12/16/2020 8:00:00 AM
12/16/2020 8:00:00 AM 1.68 35.024 0.214 7.26 31.68 13.48
12/16/2020 8:15:00 AM 1.66 34.988 0.214 7.26 33.12 13.49
12/16/2020 8:15:00 AM
12/16/2020 8:30:00 AM
12/16/2020 8:30:00 AM 1.65 34.97 0.214 7.25 36.24 13.5
12/16/2020 8:45:00 AM 1.64 34.952 0.214 7.24 36.25 13.52
12/16/2020 8:45:00 AM
12/16/2020 9:00:00 AM
12/16/2020 9:00:00 AM 1.64 34.952 0.214 7.25 33.48 13.52
12/16/2020 9:15:00 AM 1.64 34.952 0.214 7.26 36.26 13.52
12/16/2020 9:15:00 AM
12/16/2020 9:30:00 AM
12/16/2020 9:30:00 AM 1.62 34.916 0.214 7.25 35.31 13.55
12/16/2020 9:45:00 AM 1.63 34.934 0.208 7.24 30.68 13.59
12/16/2020 9:45:00 AM
12/16/2020 10:00:00 AM
12/16/2020 10:00:00 AM 1.63 34.934 0.214 7.25 36.78 13.6
12/16/2020 10:15:00 AM 1.62 34.916 0.216 7.25 35.1 13.64
12/16/2020 10:15:00 AM
12/16/2020 10:30:00 AM
12/16/2020 10:30:00 AM 1.62 34.916 0.216 7.25 32.31 13.66
12/16/2020 10:45:00 AM 1.6 34.88 0.214 7.25